GFSFLT1_con_mucape_000.txt.gz
CAPE
151 249 416 539 642 616 804 689 840 745 885 941 1244 1525 1644 1747 1963 2019 2412 1542 281 566 14 0 0 0 0 0 0 0 0 0 0
141 159 369 541 641 738 928 841 886 805 1049 1132 1289 1557 1765 1949 2317 2329 2905 500 163 83 0 0 0 0 0 0 0 0 0 0 0
96 125 339 440 576 718 962 949 914 887 1086 1252 1328 1499 1659 1930 2324 2725 1925 16 51 12 0 0 0 0 0 0 0 0 0 0 0
30 76 188 407 631 781 953 974 914 998 1173 1370 1453 1437 1530 1626 2105 2384 278 0 0 0 0 0 0 0 0 0 0 0 0 0 0
11 41 119 260 579 808 910 912 909 1010 1223 1394 1507 1478 1546 1455 1694 1955 714 1 1 8 25 9 0 0 0 0 0 0 0 0 0
7 32 74 168 369 746 923 935 984 1074 1266 1345 1441 1458 1437 1493 1356 1616 993 36 11 29 53 0 0 0 0 3 0 0 0 0 0
17 35 52 146 249 431 641 776 838 1097 1291 1309 1302 1324 1381 1449 1338 1473 941 95 96 18 8 0 0 0 0 0 0 0 0 0 0
32 31 83 99 211 297 399 510 610 718 999 1207 1272 1249 1201 1335 1338 1288 972 268 62 61 50 46 31 1 0 0 0 0 0 0 8
47 77 123 156 167 180 266 327 413 538 845 981 1183 1190 1165 1142 1178 1160 553 54 268 189 379 274 133 68 8 9 4 12 0 30 44
114 193 177 179 193 167 124 137 261 438 751 939 1128 1189 1206 1183 1146 1095 821 216 5 281 522 290 124 100 39 39 93 79 42 54 82
66 159 169 187 134 89 54 97 213 349 642 915 1112 1181 1212 1226 1234 1104 496 234 8 355 105 21 48 95 102 84 171 184 122 159 99
7 77 77 100 175 189 141 187 263 441 633 893 1070 1158 1226 1207 1209 1131 841 232 13 162 304 80 104 186 191 147 173 210 240 90 164
58 97 136 151 285 273 351 461 661 753 836 893 1002 1082 1202 1418 1227 969 581 274 113 110 217 339 195 189 208 146 194 246 127 127 94
174 185 208 244 403 578 508 535 820 958 1123 1161 1073 1220 1620 1576 1220 1058 470 229 191 261 270 286 141 94 6 19 66 86 188 120 159
242 249 247 266 384 544 761 858 863 855 1042 963 1057 1387 1590 1275 1023 906 573 250 245 275 275 166 15 28 12 3 0 123 96 185 144
321 320 308 570 709 687 701 765 1028 1030 825 954 1264 1458 1315 988 910 732 357 171 47 90 53 39 31 59 81 114 142 115 99 126 81
215 229 337 568 712 816 951 995 983 1033 1247 1274 1426 974 780 707 571 518 346 211 85 32 51 1 10 54 93 140 95 82 90 51 13
634 600 522 610 685 787 972 1088 1159 1249 1363 1166 695 492 490 565 534 457 205 95 71 24 1 45 84 138 103 83 78 42 19 1 0
719 768 737 744 854 931 1110 1168 1154 1122 850 559 370 237 68 68 270 172 50 15 26 4 87 118 130 110 81 49 16 11 2 0 0
207 583 818 994 1022 962 1064 864 835 775 650 486 302 68 15 15 37 0 0 0 0 0 1 134 142 42 16 0 0 0 0 0 0

GFSFLT1_con_mucape_003.txt.gz
CAPE
233 272 329 422 661 944 941 1030 1218 1490 1988 2374 2168 2124 2798 3024 3084 2798 2837 2621 1760 1221 1134 833 310 308 373 550 177 17 60 28 9
317 366 542 618 659 809 1143 1274 1599 1795 2104 2331 2262 1997 2778 2810 3157 3051 2840 2452 2059 2234 1078 476 296 297 378 244 0 14 95 0 16
326 561 674 707 1003 1009 1211 1221 1511 1644 2005 2254 2350 1980 2324 2516 2801 2956 2901 2564 2534 2450 670 327 323 311 200 132 32 25 165 15 3
294 614 828 1030 1202 1069 1197 1270 1336 1721 1709 2110 2042 2124 2679 2869 2800 2720 2769 2329 2928 1763 385 438 338 337 189 169 147 139 204 251 37
105 650 997 953 1053 1079 1108 1348 1254 1446 1603 1646 2154 2500 2656 2452 2523 1649 1650 1978 2224 304 225 297 354 347 302 295 256 281 286 197 0
119 395 661 955 1038 1336 1327 1384 1798 1501 1807 1740 1875 2301 2124 2216 1957 1542 1933 1782 1603 60 166 84 176 288 393 350 330 449 521 354 112
127 189 743 884 1013 1709 1914 2062 2135 2083 1850 1868 1912 1949 2096 2309 1612 1338 1253 1634 1145 0 25 82 85 258 562 384 444 414 294 120 240
109 166 438 881 1005 1800 2009 2095 1870 1895 1751 2075 2215 2320 2133 1877 1403 952 1068 1308 749 12 2 11 0 34 338 368 294 187 233 308 444
207 220 335 700 913 1016 1255 1499 1464 1456 1678 1947 2114 2133 1970 1600 1204 1149 1039 1115 731 305 177 0 101 77 186 325 182 60 24 161 581
503 493 415 520 742 902 924 982 1131 1154 1387 1563 1785 1883 1732 1366 1013 1023 1034 1035 896 515 308 63 12 198 165 546 474 154 83 82 465
386 531 523 407 255 406 556 520 671 935 1284 1654 1791 1815 1632 1266 878 932 968 1012 940 512 334 52 329 381 535 491 626 255 150 176 402
77 157 404 480 344 350 474 392 639 974 1257 1582 1779 1792 1719 1118 913 1026 1024 1069 848 613 373 204 294 173 370 457 526 113 98 151 238
66 278 570 591 590 583 820 764 851 1213 1390 1573 1737 1748 1681 1154 1363 1252 1067 1062 821 748 294 111 105 229 456 231 513 101 102 106 84
490 430 707 919 964 1004 1125 1349 1392 1602 1658 1770 1785 1688 1316 1491 1397 1104 961 894 646 337 300 211 478 552 693 419 499 350 71 21 110
653 788 945 1230 1482 1585 1358 1514 1839 1881 1877 1670 1394 1421 1434 1394 1228 1060 938 826 587 375 450 597 541 600 613 174 320 5 13 32 99
814 1200 1401 1372 1379 1500 1381 1465 1596 1506 1116 843 1018 1055 1402 1238 967 836 834 773 656 328 395 386 431 313 255 212 208 60 62 160 113
759 1018 1388 1627 1778 1660 1282 969 798 932 844 1090 1008 1137 1200 963 1077 833 705 618 331 181 183 74 39 122 246 486 183 72 96 6 19
1274 1359 1338 1550 1818 1833 1457 1079 1052 995 1074 1051 1099 1023 1059 967 962 642 520 283 62 40 71 31 180 189 406 607 363 94 31 20 0
1415 1487 1606 1702 1692 1261 941 1023 1016 1065 1060 1121 1161 1052 918 720 397 175 159 103 13 1 3 11 61 146 166 60 58 16 12 14 5
235 528 958 1736 1575 1308 1059 949 894 889 783 725 762 615 538 309 193 344 241 90 3 0 0 0 9 34 29 49 48 33 1 0 0

GFSFLT1_con_mucape_006.txt.gz
CAPE
407 639 341 408 602 819 1158 1281 1548 1815 2489 3296 3270 3245 3590 4055 3890 3180 2890 2737 1625 965 608 365 565 1715 732 359 284 263 32 0 8
199 623 594 354 598 795 1066 1328 1816 2425 3132 3002 3029 2976 3411 3706 4051 3564 2995 2780 2548 1487 1270 361 1054 1165 699 196 326 82 33 0 10
239 555 670 496 571 770 1013 1280 1567 1957 2311 2967 2788 2771 2934 3055 3240 3448 3241 3103 3211 2468 1799 1473 945 848 365 254 190 61 96 9 7
150 453 806 787 658 709 1060 1152 1365 1789 2156 2444 2701 2706 3320 3116 2923 3007 3396 3342 3438 3033 2585 1627 1121 881 401 302 225 148 188 129 0
9 240 745 962 931 971 1035 1302 1255 1444 1769 2170 2532 3125 3354 2907 2894 2988 3197 3882 3274 2691 2794 1400 1129 751 443 672 218 209 303 189 7
114 443 790 1107 1126 1309 1374 1376 1721 1559 1850 2019 2190 2602 2756 2825 2825 2997 3226 3346 2877 2917 1749 904 468 433 674 713 561 292 345 386 321
195 728 916 1228 1256 1570 1661 2055 2732 2687 1972 2073 2235 2331 2709 3233 2999 2822 2979 2890 1830 1332 815 401 117 286 332 173 447 640 622 349 427
213 851 946 1328 1502 2240 2758 2630 2686 2566 2382 2373 2379 2567 2653 3001 3146 3073 2775 2415 1479 1260 446 382 0 93 72 135 490 198 570 374 231
244 960 1052 1418 1698 1936 2359 2377 2566 2647 2642 2501 2637 2798 2872 2983 3274 3069 2810 2241 1201 1208 838 537 337 179 107 12 147 0 0 122 309
276 914 1117 1314 1679 1863 2291 2389 2668 2647 2643 2609 2701 2921 2963 3095 3183 2849 2361 1728 1361 1266 1127 871 556 387 261 171 399 30 5 33 172
296 949 1146 1283 1410 1773 1965 1907 2039 2160 2339 2546 2684 2899 2915 2959 2817 2548 2163 1985 1343 1038 1115 1122 888 503 337 270 409 296 198 60 420
544 1037 1363 1377 1339 1576 1802 1538 1781 1916 2062 2289 2463 2655 2714 2644 2413 2201 1694 1541 1475 1393 1102 1013 853 749 643 608 716 488 330 211 585
295 814 1029 1181 1094 1365 1348 1319 1474 1778 1914 2244 2473 2615 2652 2549 2247 2207 1897 1691 1709 1467 1184 866 677 755 734 596 1297 579 400 167 670
631 996 1176 1267 1210 1127 1351 1325 1546 1714 1903 2145 2341 2554 2650 2370 2147 2211 2352 1967 1726 1517 1079 987 1020 838 863 1043 469 926 354 70 591
1214 1131 976 910 1408 1750 1743 1782 2053 2280 2385 2544 2670 2714 2558 2084 2028 1777 1869 1799 1326 1048 1137 1202 990 1464 1482 1214 1365 682 618 145 91
913 875 864 1007 1544 1943 2141 2347 2390 2625 3092 2726 2676 2128 2074 1874 1913 1444 1222 1281 1139 906 1178 1041 1078 1299 1180 1804 1067 204 102 18 7
1199 1337 1213 1245 1447 1878 2344 2389 2450 2750 2147 2234 2377 2121 2087 1644 1388 1497 1260 1115 1131 1199 1155 1033 1687 1391 801 539 776 292 93 71 66
1340 1435 1347 1280 1470 2065 2282 2262 2258 2062 1973 1846 1834 1726 1733 1617 1591 1144 1314 1158 976 965 628 386 547 457 273 214 1157 586 282 118 170
1687 1863 1889 1978 2016 2291 2359 2322 2236 2175 1815 1985 1854 1616 1384 1333 1402 1430 1328 740 480 235 130 16 6 40 226 160 278 143 45 38 39
229 934 1363 2183 1949 2067 2069 2156 2130 2056 1995 1768 1597 1448 1375 1172 768 823 894 823 474 152 0 14 0 0 42 22 50 45 54 53 32

GFSFLT1_con_mucape_009.txt.gz
CAPE
94 560 662 289 577 1160 1884 1773 2556 2801 3707 4612 4710 4404 4611 4629 4634 2667 2278 2864 2057 1178 831 919 2825 1735 1309 810 342 410 335 51 13
42 175 588 514 373 630 1365 1633 2466 2883 3740 4310 4436 3615 4760 4763 4635 4468 2722 3297 3714 1995 2157 904 880 1505 1203 898 231 401 205 34 337
22 52 473 628 459 528 1037 1137 1800 2693 3396 4113 3847 4038 4279 4181 4383 4664 4472 4732 4276 3271 2594 2445 2066 1888 1389 817 759 878 538 444 377
38 58 326 684 604 553 733 872 1417 2009 2645 3579 3838 3938 3937 4138 3896 4054 4551 4433 4247 4223 3343 3271 2343 2432 1923 1007 813 759 941 500 174
6 49 197 582 724 636 740 1110 1054 1299 1635 1915 2942 3573 4228 4282 4308 4219 4103 4569 4569 4281 3780 3527 2689 2351 1862 1081 588 202 871 548 365
43 69 96 480 703 862 1022 999 1360 982 1533 1299 1777 3082 3239 3972 3920 4309 4229 4576 4450 4455 4345 3692 2478 2362 2035 1102 1005 1051 1098 1050 579
22 88 424 448 887 1362 1594 1790 1988 1748 1525 1133 1526 2113 2428 3565 4082 4124 4084 4527 4473 4552 4152 3932 2687 2284 1722 1313 1026 1019 939 978 936
0 13 626 923 1210 2428 2792 2693 2774 2574 2070 2250 1988 2876 2907 3585 4381 4294 4316 4285 4631 4406 4157 3669 2501 2123 1427 1209 599 389 1089 668 490
0 0 49 1021 1389 1749 2932 3147 3510 3239 3038 3053 2867 3675 3580 4106 4720 4588 4581 4622 4695 4222 3631 3065 2265 1224 721 400 146 118 156 489 192
8 26 87 857 1352 1818 2549 2382 3453 3589 3770 3369 3641 4179 4500 4617 4993 4914 4916 4580 4139 3554 2716 2492 1810 986 615 486 595 440 328 202 273
117 286 211 435 1160 1896 2826 2354 2437 3151 3215 4225 4449 4621 4545 4804 4955 4924 4791 4212 3573 2786 2433 2257 1519 1049 925 823 733 476 294 217 294
0 106 175 624 1402 1910 3405 2974 3589 3800 3319 3849 3811 3845 4229 4402 4258 4152 3910 3305 3020 2480 2170 1978 1059 1167 973 949 1111 500 357 220 642
420 494 156 1158 1656 2153 2699 3267 2756 3159 2927 3190 3384 3607 3637 4029 4083 3732 3242 3071 2962 2519 2472 1851 1196 1000 1076 1133 1316 624 315 280 438
531 615 1345 1880 2111 2970 3269 3167 2584 3278 3055 2813 2740 2939 3027 3381 3270 3388 3170 2751 2881 2527 2297 1782 1440 1053 1435 1622 1508 1188 649 668 565
935 1218 1637 1759 2364 2710 2618 2911 3088 3299 3451 3609 3832 3647 3344 3322 3088 2798 2659 2586 2516 2258 1997 1630 1561 1840 1832 1423 1681 698 652 455 420
1789 1750 1830 1731 1727 2590 2431 3105 3286 3675 4382 4112 3879 3706 3494 3119 2731 2481 2416 2725 2134 1464 1389 1184 1427 1098 1689 1736 1875 992 584 540 309
1256 1223 1696 1531 1751 2361 2769 3159 2903 3590 3411 3365 3356 2908 2548 2397 2642 2096 1676 1639 1271 1069 1246 1206 1523 1493 1509 1497 1234 997 221 36 6
1336 1362 1832 1960 1903 2183 2420 2677 2909 2583 2885 3062 2758 2934 2574 2465 1940 1608 1218 1050 1125 1137 1100 888 986 1202 1304 784 347 502 148 37 30
1393 1396 1541 2079 1920 2268 2558 2644 2649 2616 2567 2692 2441 2324 2078 1756 1523 1276 1142 1010 955 724 580 438 335 70 106 97 65 215 239 122 92
850 1522 1514 1664 1885 2234 2516 2576 2651 2352 2501 2518 2442 1893 1851 1399 1275 1411 1560 1057 975 568 221 0 0 0 0 29 20 95 74 71 17

GFSFLT1_con_mucape_012.txt.gz
CAPE
424 746 579 656 769 1066 1559 1545 2029 2455 3319 3730 4058 3701 4126 3742 3529 3528 3173 3250 2976 2743 2081 1701 1972 1854 1707 1843 1138 1161 1308 1068 450
197 709 716 548 1000 989 1600 1598 1952 2390 3482 3855 4118 4085 4152 4133 3861 3674 3372 3066 2999 3253 2385 2829 1762 1720 2108 1474 1266 1279 1496 440 486
64 43 816 812 680 1206 1500 1735 1903 2471 3005 3860 4202 4173 4109 4062 4133 3678 3188 3223 3425 2469 2968 2328 2327 2116 1883 1536 1180 864 1108 395 910
41 32 264 736 790 838 1441 1833 1904 2306 2622 3652 4104 4117 4060 4067 4025 3984 3467 3889 3287 3529 2771 2495 2463 2168 1822 1597 1127 1119 914 601 388
53 49 173 444 963 801 1108 1478 1700 2162 2602 3178 3748 3899 3952 3977 4049 4016 3976 3434 3886 3328 3862 3017 2365 2265 2000 1646 752 1123 609 371 213
200 205 484 549 719 920 991 1140 1517 1961 2337 2712 3470 3637 3665 3773 3813 3970 3893 4037 3448 4161 3578 3099 2320 2370 2038 1742 772 983 651 478 570
188 523 872 1003 914 1269 1094 1232 1513 1770 2105 2324 2859 3254 3363 3516 3651 3748 3658 3868 4068 3745 3846 3278 3063 2362 2099 1875 928 757 552 737 820
155 604 1038 1178 1478 1963 1615 1734 1696 1632 1766 1843 2013 2768 3137 3447 3815 3728 3800 3767 4122 4015 3951 3870 3494 2930 2296 2041 1031 710 890 897 846
276 259 366 1322 1700 3064 3160 2180 1945 1717 1679 1706 1895 2238 2663 3077 3585 3951 3777 3976 3921 4231 4165 4220 3741 3141 2232 1909 1016 480 396 732 832
408 339 297 1413 1927 2156 2871 2881 2422 1949 1805 1977 1916 2565 2726 2918 3542 3947 4053 3976 4032 4279 4297 4194 3698 3328 2319 1834 1074 424 244 295 695
242 308 219 336 852 2102 2631 2877 2626 2659 2363 2573 2495 3667 3264 3485 4112 4296 4220 4221 4249 4432 4360 3985 3478 2717 2576 1892 1324 556 344 344 365
21 40 780 464 86 1889 2696 2942 2917 3407 3012 2748 3794 3365 4630 4128 5033 4793 4762 4742 4681 4495 3799 3069 3033 2637 2170 1547 1107 777 778 420 310
4 9 122 549 331 2303 3358 3354 3200 3366 3692 3440 3233 4295 4442 5008 5021 4950 4888 4790 4364 3421 3431 3192 2731 1723 2080 1453 905 836 592 620 488
649 132 382 1574 3051 2911 3519 3615 3516 3660 3819 3989 4020 4533 4546 4828 4917 4957 4833 4538 3296 3039 3335 2622 1701 1985 1573 923 747 1303 855 676 658
1640 843 918 3037 3569 4082 4067 3948 4029 4174 4245 4439 4556 4489 4465 4626 4686 3833 3788 3384 2730 2749 2373 1953 1661 1647 1148 1344 1610 769 798 679 571
1234 1143 2930 2691 3753 4123 4124 4552 4039 4149 4397 4092 4013 4029 4257 4217 3890 3473 3131 2771 2701 2439 2267 1829 1520 1664 1611 1929 1880 1193 715 643 479
2674 2767 3062 3123 3084 3414 3680 3859 4085 4327 4345 4222 4134 4104 3715 3270 2641 2544 2577 2375 2213 1847 1687 1499 1624 1814 2157 1805 1710 884 531 464 395
2755 2736 2821 3006 3139 3594 3959 4403 4034 4060 4243 4026 3253 2891 2647 2313 1882 2150 2111 2017 1482 1404 1078 1062 1901 1964 1693 1286 1174 1013 405 93 8
2464 2607 2497 2641 3122 3432 3445 3496 3587 3788 3882 3263 3053 2608 2247 1834 1952 2124 1700 1356 947 930 993 856 638 670 796 638 249 76 1 0 22
1455 1672 2167 2831 3196 3323 3221 3208 3042 3310 3654 3418 2843 2372 2310 1941 1636 1622 1170 810 675 544 464 414 412 348 2 124 0 52 115 122 74

GFSFLT1_con_mucape_018.txt.gz
CAPE
29 156 101 43 29 142 139 270 689 1148 1007 897 1385 1572 1495 1403 1306 1113 959 801 851 1354 1427 1514 1320 1349 1146 990 730 517 56 43 25
51 167 117 12 11 97 207 274 789 1097 1315 1163 1468 1461 1465 1520 1414 1199 1144 1253 1414 1582 1471 1342 1287 1326 1381 1184 854 364 132 130 59
87 179 103 14 15 135 298 270 785 1148 1492 1411 1610 1758 1510 1421 1571 1654 1472 1512 1291 1513 1611 1477 1208 1431 1561 1041 729 428 284 165 164
86 300 187 94 103 143 242 395 798 1326 1531 1486 1712 1944 1875 1728 1443 1364 1826 1798 1599 1530 1632 1538 1349 1281 1196 912 679 575 507 282 182
142 311 259 156 153 212 183 563 829 1270 1794 1682 1745 2007 2061 2047 1984 1741 1552 1643 1893 1976 1899 1554 1410 1454 1339 951 797 700 597 391 200
195 343 253 70 70 129 341 589 747 1288 1689 2002 2010 2111 2126 2397 2297 2196 2016 1737 1664 1883 2043 1746 1491 1485 1219 1108 960 822 700 484 310
108 101 127 70 81 176 377 667 777 1268 1464 2165 2237 2363 2239 2317 2544 2414 2356 2180 1933 1845 1894 2139 1694 1549 1502 1445 1289 1180 1067 915 768
152 114 45 46 15 203 427 812 882 1177 1567 1963 2309 2442 2596 2449 2553 2640 2590 2523 2271 2019 2012 1990 2038 1646 1591 1525 1403 1363 1302 1205 1037
15 103 86 4 77 277 345 822 1001 1095 1437 2207 2380 2614 2666 2770 2709 2648 2656 2783 2720 2453 2177 2426 2359 2158 1921 1779 1740 1739 1691 1642 1415
0 60 7 2 217 299 491 845 1044 1105 1507 2044 2606 2683 2879 2919 2879 2809 2744 2725 2813 2910 2772 2539 2668 2884 3031 2868 2612 2407 2188 1916 1778
0 21 9 164 354 461 680 873 1108 1199 1404 1820 2533 2698 2852 3045 2925 2864 2822 2857 2903 2893 3008 2965 2823 2640 2797 2933 2850 2505 2659 2294 2478
0 0 0 6 602 506 604 857 1139 1242 1376 1765 1975 2500 2686 2896 2872 2764 2844 2822 2927 2958 3053 3136 3143 3200 3163 2974 2624 2476 3038 2840 2637
0 0 0 37 256 1085 800 829 861 1114 1326 1596 1861 2062 2461 2717 2749 2702 2767 2875 2892 2959 3038 3118 3228 3346 3391 3081 2614 2729 2899 2801 1974
400 0 0 0 0 581 1517 978 794 871 1072 1346 1652 1942 2042 2426 2654 2668 2674 2902 2956 3075 3070 3197 3232 3330 3397 2918 3161 3367 2331 1468 976
576 487 374 0 0 0 238 1482 1234 1037 977 1098 1432 1630 1787 1898 2391 2474 2680 2998 3087 3127 3177 3225 3115 2721 2740 3126 2641 1876 1007 760 380
722 1646 1947 2052 239 0 37 961 1465 1257 1209 1163 1313 1432 1687 1857 2087 2588 2987 3037 3118 3184 3209 2905 2476 2282 2315 2021 1359 773 544 525 553
2530 2687 2896 2986 2814 2461 2418 1908 1850 1549 1514 1931 1995 2236 3191 3216 2965 2918 3013 3035 2992 3098 2980 2647 2415 2147 1299 991 793 696 662 616 672
2131 2392 2754 3107 3301 3204 3040 3118 3076 3001 2524 3235 3165 2996 2832 2959 2928 3067 3110 3143 3109 2467 2281 2068 1745 1180 937 899 765 731 688 634 539
1465 1444 1583 1916 1994 2461 2352 2838 3110 3245 2963 2725 2954 3157 2857 2695 3255 3158 3074 2359 1370 1272 1173 1268 970 848 876 877 787 691 595 184 24
1088 1059 871 613 876 673 475 965 952 3342 3135 2979 3063 2853 2885 2722 2242 1417 1238 1284 1211 1043 821 711 948 989 991 741 577 241 0 0 0

GFSFLT1_con_mucape_021.txt.gz
CAPE
0 0 36 63 89 113 203 279 482 579 574 854 969 953 890 859 956 875 791 762 740 602 1148 1390 1405 1475 1236 1141 960 569 459 28 4
1 6 27 31 87 58 78 146 268 539 532 615 1195 1192 1088 970 915 926 881 884 911 860 916 1296 1470 1461 1356 1250 1135 775 651 146 30
0 3 14 43 60 88 59 113 146 492 577 525 772 1256 1155 1039 968 948 969 987 990 812 902 1159 1232 1418 1443 1252 1160 1000 802 261 36
0 0 0 31 81 126 129 73 91 375 672 630 602 993 1135 1101 1068 1082 1097 1077 1029 950 1184 1331 1346 1304 1406 1134 1073 1224 904 368 198
0 0 14 33 93 128 129 91 114 435 678 798 745 958 1069 1095 1170 1235 1197 1119 1131 979 1153 1345 1517 1506 1429 1237 1229 1410 901 591 524
0 0 5 4 41 100 78 67 192 538 749 973 947 1033 1230 1189 1138 1164 1291 1388 1296 1230 1276 1464 1278 1414 1429 1227 1279 1317 961 759 705
0 7 9 20 5 141 121 93 272 527 938 1078 1135 1267 1406 1479 1433 1347 1212 1280 1404 1452 1497 1533 1604 1550 1418 1529 1476 1359 1125 1019 859
0 0 48 77 67 245 215 203 302 515 884 1231 1281 1385 1581 1605 1654 1662 1606 1482 1362 1349 1423 1526 1542 1692 1697 1506 1484 1548 1484 1408 1260
0 0 2 96 154 227 141 69 282 500 937 1262 1539 1575 1710 1751 1874 1912 1916 1887 1767 1627 1523 1531 1556 1535 1605 1735 1691 1600 1574 1576 1515
0 0 0 30 184 322 317 144 318 533 929 1187 1798 1834 1857 1889 1879 2069 2136 2092 2067 1975 1866 1755 1726 1732 1696 1795 2008 1743 1655 1583 1592
0 0 0 0 43 62 90 149 434 637 919 1273 1709 1972 2029 2149 2104 2072 2198 2263 2279 2217 2087 2017 1944 1921 1879 1857 1952 1942 1954 2094 2401
0 0 0 0 0 87 65 261 581 869 987 1220 1809 2029 2163 2287 2441 2347 2268 2304 2344 2400 2311 2227 2221 2109 2158 2264 2292 2492 2922 2981 2948
0 0 0 0 0 7 154 392 690 995 1072 1322 1825 2165 2278 2453 2550 2538 2467 2408 2381 2385 2475 2424 2393 2463 2465 2504 2521 2628 2774 2845 2555
0 0 0 0 0 220 344 535 923 1132 1162 1239 1550 2097 2366 2428 2641 2629 2551 2488 2457 2551 2568 2689 2690 2605 2644 2901 3026 2920 2610 2731 2824
938 1783 2098 2032 116 0 574 587 880 1096 1203 1275 1405 1651 2005 2314 2463 2678 2538 2549 2582 2690 2714 2941 2920 3271 3045 3148 2995 2413 2684 2651 2364
1347 1876 2194 2297 2401 2161 549 42 844 840 1133 1285 1385 1464 1671 1886 2334 2527 2546 2560 2600 2666 2734 2940 3102 3165 3014 3093 2427 2536 2232 1829 1245
1833 1867 1928 2433 2486 1945 1958 2325 1583 1066 1117 1009 1195 1456 1527 1661 2061 2380 2495 2556 2662 2724 2807 2886 2829 2783 2915 2286 1941 1608 1618 766 499
1655 1951 1906 1810 1720 2318 2621 2509 2505 2384 1986 1470 1100 1175 1363 1492 1791 2235 2556 2665 2704 2674 2583 2328 2284 2145 1842 1775 1454 1461 821 519 476
1152 1050 1060 1125 1192 1339 1182 1555 2077 1916 2695 2444 1651 1421 1769 1983 2069 2317 2504 2520 2646 2212 1872 1696 1164 1139 537 1030 745 726 699 634 593
574 546 582 546 543 550 540 508 926 1083 1041 2358 2621 2367 2211 2147 1953 2320 2377 2374 1966 1112 737 665 2 238 487 576 514 584 601 536 177

GFSFLT1_con_mucape_024.txt.gz
CAPE
38 110 269 353 346 262 182 278 375 365 383 411 442 425 404 425 449 404 478 486 444 555 807 1056 1140 1235 1222 1093 1173 936 727 304 90
0 0 1 98 223 282 145 135 199 315 411 433 474 490 460 415 495 449 534 639 614 567 684 910 971 1088 1250 1182 1261 1073 836 434 344
4 0 0 1 9 63 100 90 133 251 388 406 487 565 550 529 526 518 524 664 784 719 674 820 936 1077 1293 1311 1375 1209 1061 708 603
5 0 0 0 1 6 14 32 69 201 359 421 440 745 753 759 712 637 608 663 775 825 776 804 877 1027 1223 1266 1390 1344 1225 894 800
0 0 0 0 0 2 11 13 17 74 335 395 420 851 969 963 895 792 730 703 748 816 857 933 959 889 1130 1117 1263 1458 1222 1051 1005
0 0 0 2 0 0 0 4 25 35 212 456 438 504 1019 1036 986 901 844 796 781 840 941 1006 987 841 1090 1249 1363 1403 1274 1099 1216
0 0 0 0 0 0 0 0 57 62 159 384 560 557 794 1014 1059 1016 1026 962 940 896 979 1030 1072 1085 1361 1474 1522 1464 1402 1202 1403
0 0 0 0 0 1 18 0 62 145 214 395 658 722 761 994 1055 1089 1138 1216 1174 1107 1043 1084 1151 1006 1162 1324 1325 1458 1494 1354 1432
0 0 0 0 0 14 131 101 181 272 348 611 778 922 940 1066 1204 1183 1151 1135 1281 1309 1306 1275 1245 1262 1098 1375 1431 1305 1427 1634 1653
0 0 0 0 0 25 141 249 310 414 476 735 933 1089 1177 1296 1399 1442 1418 1366 1244 1225 1238 1345 1397 1410 1335 1281 1496 1616 1559 1583 1672
0 0 0 0 0 0 56 325 401 447 442 843 1140 1217 1270 1475 1603 1666 1663 1675 1573 1458 1363 1296 1339 1405 1478 1382 1368 1477 1575 1647 1777
0 0 0 0 0 0 0 98 416 485 467 856 1194 1436 1420 1548 1739 1808 1838 1881 1877 1839 1723 1546 1516 1495 1569 1616 1529 1499 1518 1566 1950
0 0 0 0 0 0 0 0 17 297 542 862 1087 1584 1702 1759 1847 1829 1926 2035 2090 2060 2004 1841 1730 1656 1723 1816 1823 1672 1710 1744 1973
34 28 0 0 0 0 0 0 42 344 478 783 1118 1409 1793 1968 2067 2052 1964 2090 2276 2324 2350 2164 1870 1825 1813 1972 2036 1915 1868 2049 2267
1365 1688 1891 939 0 0 0 170 128 436 637 814 1030 1435 1775 1982 2202 2320 2323 2207 2286 2285 2439 2415 2140 1937 2372 2044 2223 2251 2180 2412 2643
1333 1752 1949 1686 1507 1625 1538 570 378 636 850 864 922 1202 1773 2148 2258 2445 2433 2469 2405 2407 2425 2434 2301 2259 3117 2967 2493 2303 2504 2734 2660
897 883 812 771 845 1384 1578 1708 2107 1853 1715 1519 892 1024 1398 1839 2339 2479 2614 2471 2483 2479 2477 2306 2452 2229 2702 2900 2480 2298 2694 2568 2068
726 700 655 628 597 585 499 417 405 395 844 1827 2469 1644 1030 1472 2023 2380 2574 2500 2379 2356 2470 2555 2551 2421 2368 2213 1635 1630 1806 1147 1191
432 337 328 385 395 236 58 16 20 38 89 228 2015 2566 2005 1520 1762 2168 2388 2394 2290 2490 2620 2601 2539 2306 1736 843 31 209 182 298 419
392 359 56 0 0 25 0 15 15 3 5 0 1016 2349 2255 1658 1506 1759 2154 2164 1980 2189 2640 2575 2336 1775 1060 472 190 8 207 130 282

GFSFLT1_con_mucape_027.txt.gz
CAPE
519 659 778 954 1269 1381 1372 1245 1242 1157 1383 1628 1785 1766 1920 2054 2170 1763 1861 1921 1440 1398 1357 1481 2016 2238 2257 2198 2063 1778 1395 1197 829
235 603 721 754 1100 1336 1313 1393 1234 1334 1452 1656 1707 1666 1762 1827 1956 1950 1825 2033 2140 1468 2137 1486 1925 2290 2386 2372 2083 1796 1374 938 725
0 33 411 667 989 1110 1162 1051 1311 1254 1439 1659 1761 1754 1716 1622 1736 1863 1908 2007 2010 2020 2149 2156 1951 2323 2423 2396 2146 1848 1574 1237 783
0 0 55 190 736 1142 1200 842 1068 1191 1422 1687 1821 1827 1812 1766 1727 1754 1900 1921 2001 2089 2255 2320 2319 2321 2303 2305 2183 1860 1684 1540 1022
0 22 98 101 170 431 660 1135 986 1194 1325 1550 1746 1832 1931 1888 1912 1872 1832 1903 1973 2081 2215 2194 2522 2465 2357 2231 2190 2003 1736 1659 1203
0 0 27 132 92 376 672 948 1087 1018 1125 1161 1282 1793 1866 2006 2031 1928 1910 1941 2036 2141 2196 2253 2047 2418 2577 2267 2091 2076 1825 1814 1641
0 0 60 185 132 653 652 806 1030 1103 1158 1108 1268 1489 1806 2050 2105 2066 2012 2052 2140 2157 2279 2267 2364 2514 2665 2430 2082 2043 1831 1792 1822
0 0 0 1 134 726 991 1021 1132 1063 1137 1405 1441 1713 1769 2090 2239 2292 2302 2222 2225 2262 2374 2269 2396 2489 2587 2460 2049 1777 1922 1827 1838
0 0 0 0 353 424 633 1040 1128 1108 1207 1331 1613 1786 1720 1991 2390 2452 2398 2374 2354 2386 2385 2354 2488 2532 2589 2592 2054 1457 1260 1567 1905
0 0 0 0 196 461 658 652 1105 1047 1203 1204 1619 1861 1931 2051 2299 2461 2474 2435 2483 2427 2474 2417 2484 2466 2545 2610 2617 1317 1196 1175 2062
0 0 0 0 0 15 861 381 319 984 1226 1558 1723 1931 2138 2110 2112 2367 2458 2548 2539 2594 2571 2560 2567 2531 2539 2594 2555 1428 1115 1210 1862
0 0 0 0 0 0 606 738 883 1181 1389 1701 1909 2010 2208 2260 2182 2413 2536 2513 2543 2551 2623 2711 2733 2683 2713 2641 2711 1487 1303 1175 1571
0 0 0 0 0 0 1 496 389 991 1216 1632 2025 2154 2263 2308 2554 2591 2656 2715 2746 2690 2633 2676 2645 2802 2802 2273 2777 1634 1373 1338 1926
0 1 0 0 0 0 29 46 315 1289 1452 1793 2012 1858 2055 2617 2852 2908 2785 2529 2857 3106 2989 2901 2893 2855 2831 2783 2311 2517 1475 1514 2086
2092 2130 1398 0 0 38 555 680 750 1564 2182 1998 2107 2249 2682 3203 3207 2873 2661 3042 2753 3285 2884 3136 3300 3133 2612 2594 2888 1806 1730 1632 1704
1881 2142 1809 1205 967 1232 1185 1337 1528 1788 1786 1796 2120 2588 3149 3340 3403 3381 3384 3446 3417 2740 2419 2513 2796 2429 2584 2454 2071 2164 1757 1894 1908
1421 1374 1373 1128 1198 1408 1569 1506 1797 2035 2386 2404 2247 2781 3019 3282 3555 3636 3720 3382 3267 3028 2507 2344 2094 2338 2443 2186 2143 1919 2137 1820 2048
527 476 438 369 376 425 360 464 388 229 355 2150 3073 2368 2333 2714 2910 2988 3598 3652 3461 3060 2779 2748 2752 2975 2425 2378 2102 1996 1970 2130 1825
301 258 269 242 223 255 226 295 329 267 266 197 1056 1793 2111 2014 2155 2563 3125 3325 2747 2711 2606 2481 2322 2528 2470 2297 1965 1750 1475 1984 1096
63 58 65 181 552 740 849 753 688 675 629 407 488 724 1230 1692 1363 1966 3041 2529 2404 2344 2495 2500 2177 2137 2248 2055 1885 1548 1184 1268 728

GFSFLT1_con_mucape_030.txt.gz
CAPE
171 724 1061 1169 1379 1540 1583 1398 1737 1678 2429 2929 2697 2554 3586 3695 3809 2356 2419 2813 1913 1764 1455 1621 1759 2305 2509 2660 2674 2881 2769 2649 2256
0 349 1048 1242 1312 1481 1693 1870 2404 2520 2899 3420 2990 2477 3596 3910 3667 3487 2300 3333 3196 2102 2851 1737 1832 1992 2521 2496 2683 2794 2892 2525 2378
0 207 955 1171 1318 1392 1595 1765 1888 2321 2876 3152 3256 2791 3018 2962 3316 3751 3570 3724 3772 3336 2836 2787 2282 2181 2333 2466 2710 3006 3067 2545 2394
0 94 718 903 1044 1208 1416 1649 1873 1995 2274 2835 2903 3003 3244 3171 2857 3023 3321 3482 3680 3756 3082 3571 3013 3072 2550 2399 2801 3062 3194 3077 2413
0 22 76 187 545 875 1152 1478 1677 1941 1960 2028 2464 2874 3360 3408 3443 3308 3041 3425 3498 3710 3723 3456 3790 3340 3251 2792 2659 2986 3010 3008 2399
0 0 14 108 142 342 884 1244 1556 1519 1839 1785 1885 2743 2496 2723 3006 2878 3407 3640 3522 3691 3779 3844 2722 3498 3946 3357 3026 3288 3016 2919 2978
0 0 0 0 37 190 517 1166 2163 2340 1487 1622 1655 1942 2199 2981 3397 3367 3377 3631 3635 3695 3824 3900 3854 3700 4175 3794 3190 2984 2699 2720 2940
0 0 0 0 362 530 1037 1337 2004 2512 1820 2011 1880 2602 2324 3051 3466 3647 3655 3701 3699 3705 3909 3798 3987 3954 4050 4097 3123 2551 3566 3408 3076
0 0 0 0 0 199 714 1254 1624 1883 2635 2182 2057 2834 2840 3120 3641 3886 3808 3817 3804 3933 3892 3910 3974 3903 4053 4080 3067 1998 1807 2615 3219
0 0 0 0 0 17 594 1028 1367 1491 2454 2020 2485 2880 3204 3382 3754 3895 3949 3989 4034 3969 3915 3973 4032 3987 4011 4151 4043 2025 1711 1660 2947
0 0 0 0 0 0 82 437 123 1124 1361 2672 2860 3123 3304 3555 3732 3928 4155 4188 4113 4086 4041 3974 4092 4037 4095 4145 4075 2592 1824 1523 2767
0 0 0 0 0 0 0 0 155 359 1326 1876 2600 3156 3389 3557 3670 3410 3551 4120 4098 4067 3845 3665 3693 3554 4120 4375 4226 2707 2318 1735 2572
0 0 0 0 0 0 0 127 224 622 1151 1554 2588 3008 3277 3476 3786 3781 3705 4092 4230 4088 3938 3556 3107 3511 3910 3417 4265 3137 2410 2069 2261
2 0 0 0 0 0 37 419 644 1056 1290 1677 2423 2349 2415 3367 3875 4040 4038 4341 4302 4240 4067 3624 4045 3715 3696 4075 3877 3799 2662 2107 2631
218 69 669 1172 332 0 16 640 630 1193 2941 2489 2985 3083 3084 3874 3994 3208 3073 4433 4496 4176 4167 4127 3978 3379 3552 3703 4106 2781 2716 2474 1923
20 435 1275 1690 13 243 1386 1904 1567 1639 2737 2643 2702 2999 3669 3715 3817 3855 4197 4487 4536 3738 4238 3371 3369 2907 3468 3176 3682 3713 2520 2373 2193
1060 1728 2440 2084 1387 1305 1988 2517 2625 2869 2875 2719 2767 2875 3131 3239 3500 3483 3475 3295 3545 3284 3098 3598 3207 3560 3712 3414 3448 3475 3140 2240 2006
1382 1525 1290 1451 1791 1899 1864 1976 2011 2185 2719 3430 2926 3120 3231 3353 3301 3469 3626 3853 3376 3266 3635 3205 3428 3503 3170 3090 3100 3306 2848 2103 1942
989 1125 1002 976 963 1041 1162 1093 1147 1228 1225 1326 1848 2398 2539 2400 2498 2802 3219 3300 3737 2780 2939 2953 2857 2805 2427 2201 2342 2585 2486 2134 1874
577 791 1040 1307 1367 1424 1437 1358 1203 614 814 1496 1653 1541 1516 1458 1389 1585 1816 2400 2906 3042 2999 2881 2774 2670 2594 2356 2581 2545 2474 2081 2015

GFSFLT1_con_mucape_033.txt.gz
CAPE
75 239 812 1119 1329 1454 1609 1639 2075 2248 3171 4022 4154 3999 4109 4011 4292 2773 2367 2769 1536 1275 1167 1141 2760 3858 3465 3433 3530 3310 4009 3024 2711
25 199 623 931 1279 1489 1998 1884 2412 2567 3137 3788 4039 3666 4080 4260 4188 4034 3007 3303 3564 2521 2690 1331 2928 3542 3601 3579 3578 3862 4082 2681 3537
0 47 410 867 1173 1416 2002 1792 2254 2678 3004 3598 3841 3477 3820 3960 4210 4301 4018 4118 4237 3249 3415 3617 3627 3149 3271 3471 3765 3927 4317 3227 3633
0 0 173 722 1153 1344 1673 1773 1806 2386 2836 3499 3829 3763 3768 3859 4000 4060 4269 3952 4196 4174 4186 4402 3761 4087 3664 3708 3792 3985 4382 3978 3703
0 0 80 657 1153 1137 1320 1684 1809 2082 2503 2528 3662 3785 3880 3864 4021 4010 4049 4225 4028 4308 4407 4201 4405 4284 4201 3972 3808 3980 4255 3998 2588
0 0 130 686 893 1037 1181 1437 2155 1996 2512 2119 2266 3248 3444 3958 3963 4052 3973 4144 4210 4172 4353 4402 4196 4284 4471 4324 3948 4019 4410 4289 3990
0 0 20 211 330 498 1134 1601 2564 2854 2368 2258 2288 2501 2859 3481 4052 3975 4042 4122 4333 4276 4383 4392 4329 4275 4403 4410 4297 4028 4109 4185 4195
0 0 0 1 89 432 933 2052 2882 3096 2400 2841 2548 3151 3153 3456 3998 4198 4253 4212 4289 4333 4384 4357 4407 4369 4378 4566 4398 3585 4064 3864 3998
0 0 0 0 0 89 552 1404 2615 2828 3201 2798 2824 3479 3342 3729 4127 4351 4424 4436 4380 4538 4434 4476 4467 4464 4380 4376 4091 2830 2490 3152 3961
0 0 0 0 0 0 259 633 1582 2022 3294 3226 2934 3378 3782 3815 4188 4393 4522 4572 4605 4527 4524 4534 4520 4471 4529 4479 4476 3022 2303 2177 3789
0 0 0 0 0 0 34 19 291 1415 1558 3813 3697 3634 3690 3998 4125 4356 4573 4683 4633 4650 4632 4592 4594 4599 4656 4632 4514 3521 2679 2114 2993
0 0 0 0 0 0 134 0 42 473 1643 2824 3744 3908 3861 3820 4196 4345 4526 4574 4610 4644 4610 4605 4555 4610 4724 4717 4575 3588 3226 2565 2671
32 0 0 0 0 0 0 62 0 0 256 1698 3625 3658 4076 4156 4444 4475 4533 4624 4762 4739 4690 4567 4299 4481 4632 4293 4683 3958 3354 2960 2907
527 648 514 249 157 74 165 113 67 1358 1224 1405 2704 3329 3999 4390 4465 4647 4572 4655 4783 4828 4759 4430 4637 4525 4569 4636 4349 4524 3538 3139 3310
626 983 787 400 397 1021 1174 431 783 2740 2973 3085 3777 3761 3970 4324 4548 4132 4067 4692 4833 4969 4842 4750 4747 4703 4633 4553 4659 3643 3679 3352 2942
1090 1141 805 37 310 1619 533 772 1067 2719 3751 4441 4389 4491 4638 4619 4694 4696 4536 4840 4910 4502 4794 4311 4404 4248 4507 4468 4468 4562 3508 3166 3171
1197 1167 1444 1962 2000 1703 1040 2063 2545 2454 3448 3665 4170 4740 4844 4808 4894 4783 4610 3660 4007 3845 3696 4024 3973 3905 4110 4014 4122 3995 4485 3424 3157
1177 1660 2257 2041 2451 2558 2752 3134 3421 3449 3497 3231 3255 3426 3393 3615 3433 3852 4495 4385 3289 3606 3966 3276 3589 3737 3600 3662 3766 3620 3543 3861 3695
1948 1681 1703 1839 1902 2007 1914 1867 1891 1991 2011 3338 3800 3592 3550 3338 3171 3324 3525 3581 4000 3149 2901 2954 2836 2767 2720 3028 2959 2823 2834 2981 2850
1153 1846 1955 1715 1947 1925 1908 1809 1161 1172 1770 1988 2155 2434 2467 2138 1748 1897 2033 2872 3033 2906 2671 2856 2560 2571 2662 2698 2737 2727 2741 2473 2518

GFSFLT1_con_mucape_036.txt.gz
CAPE
324 700 791 1417 1630 1382 1159 1144 1452 1786 2778 2930 3018 2964 3079 2446 3268 2685 1733 3106 1533 1198 1643 1714 2952 2781 3180 3075 2954 3206 3919 3747 3302
174 341 541 1258 1650 1638 1385 1177 1438 1725 2405 2944 3179 2854 3391 3291 2441 3351 2558 2353 2794 2568 1997 2227 3502 2905 3130 2856 3265 3519 3810 2997 3453
82 218 488 1099 1527 1832 1648 1366 1431 1651 2315 2792 3214 3325 3138 3296 2841 3051 3165 2680 2955 2248 2984 2420 3742 3135 3026 3194 3068 3677 3509 3338 3479
62 230 479 903 1572 1742 2009 1682 1658 1679 1931 2804 3220 3281 3249 3218 3330 2828 2931 3051 3115 3763 2763 4141 2962 3801 3214 3270 3295 3313 3603 3117 3012
8 206 678 830 1351 1683 2024 2091 1892 1960 2046 2469 3060 3534 3438 3144 3238 3512 3341 2906 3175 3483 4098 3182 4257 3687 3381 3411 3162 3294 3285 3316 2545
82 457 375 762 1238 1549 1964 2135 2174 2186 2189 2190 2971 3458 3411 3312 3204 3240 3475 3540 3052 3281 3422 3838 3286 3993 3906 3245 3180 3159 3273 3259 3226
126 568 486 831 1203 1556 1839 2127 2398 2398 2370 2383 2495 3178 3450 3287 3365 3370 3410 3546 3685 3265 3292 3454 3668 3533 3472 3818 3317 3249 3170 3286 3559
312 641 708 1207 1324 1836 1941 2282 2506 2597 2530 2566 2528 2680 3203 3359 3372 3509 3516 3619 3684 3838 3592 3421 3551 3630 3611 3506 3697 3348 3228 3249 3515
200 158 103 188 537 695 1520 2498 2951 2569 2672 2821 2764 2758 2929 3185 3459 3485 3835 3680 3775 3856 3946 3837 3782 3820 3703 3687 3585 3355 3084 2974 3320
0 0 0 6 100 327 1008 1472 3277 3287 3024 3098 3270 2998 3261 3311 3404 3565 3737 3989 3889 3846 4036 4051 4029 4011 3966 3710 3695 3437 3243 2857 3129
0 0 0 128 0 56 1038 393 475 2111 3412 3495 3310 3880 3601 3805 3862 3686 3922 4064 4098 4124 4050 4163 4119 4174 4101 4021 3863 3510 3364 3035 2650
0 0 29 59 0 2 1426 842 974 1605 2066 3730 3726 3464 3920 3696 4044 4027 4027 4135 4153 4213 4279 4213 4311 4243 4271 4191 4029 3709 3464 3273 2915
351 560 988 1357 913 936 220 2046 406 2494 2214 2862 3636 3597 3435 3858 3783 3952 4068 4190 4341 4359 4363 4351 4304 4316 4274 4156 4196 3872 3732 3433 3112
390 871 1161 1385 1338 1268 2281 2246 1988 2875 2217 2348 3089 3601 3745 3984 4023 3890 4093 4250 4448 4497 4487 4446 4425 4358 4341 4339 4179 4142 3935 3708 3433
651 1213 1463 1188 1486 1656 1681 2692 2540 2944 3880 3984 4151 4223 4064 4173 4513 3956 3938 4406 4510 4536 4527 4507 4445 4402 4376 4387 4323 4098 4021 3934 3730
1069 1743 1962 1574 1265 1618 1906 1987 3187 3042 4783 5096 4868 5087 4912 4472 4704 4525 4143 4588 4486 4512 4599 4527 4504 4405 4385 4308 4211 4499 4168 3944 3794
1010 1992 2249 3052 3147 3420 3637 2642 3000 4366 4350 4436 5079 5233 5322 4947 4843 4661 4528 4171 4448 4330 4357 4512 4555 4458 4334 4167 4380 4427 4109 4087 3960
830 1272 2659 2816 3385 4009 4061 4454 4187 4045 4478 4801 4646 4830 4986 5113 4685 4587 4739 4590 3995 4478 4403 4237 4382 4386 4083 3908 4200 3668 3331 3590 3647
386 1411 2396 2882 2941 2690 2405 2288 2362 2870 3146 3849 4822 4644 4244 4059 3859 4121 4327 4563 4501 3552 3318 3483 3273 3084 3175 3197 3049 3015 2974 2947 2903
320 1003 2196 2369 2761 2276 2464 2430 1566 1547 2568 3008 3667 3975 4549 4082 3386 3944 4194 3976 4525 4424 3366 2786 2828 2853 2881 2798 2658 2597 2550 2718 2845

GFSFLT1_con_mucape_039.txt.gz
CAPE
556 693 454 578 612 664 586 574 749 1235 1257 1281 1570 1774 1222 902 1816 1473 921 1406 683 553 1275 1680 1491 2295 1923 1903 1787 1878 1995 1983 2048
541 649 678 763 708 710 731 722 1019 1118 1598 1390 1557 1823 1768 1209 1125 2226 1454 633 1529 1272 813 1236 1629 1873 2383 1885 1681 1650 1954 2475 1934
268 577 743 983 847 782 792 800 890 1247 1762 1718 1717 1742 1939 1828 1198 1108 2286 1443 752 1910 811 732 1499 1864 2058 2086 1877 1883 2003 2663 2485
70 530 773 1125 998 864 850 876 851 1091 1500 1974 1951 1934 1763 1998 1769 1219 1690 2132 1221 1795 1551 1624 1292 2144 2028 2031 2100 2283 2242 2191 2452
0 390 507 1226 1189 1026 977 949 895 1022 1207 1916 2034 2139 1921 1991 2221 2021 1391 2019 2455 970 2244 1464 2434 2454 2178 2331 2067 2057 2699 2364 2246
0 55 411 1209 1393 1290 1154 1040 933 953 1151 1588 2024 2257 2325 2158 2134 2371 2170 1755 1873 2589 1547 2589 1756 2802 2476 2359 2448 2493 2206 2495 2331
0 282 526 1185 1347 1473 1379 1154 1031 997 1039 1412 2022 2217 2424 2494 2452 2415 2533 2233 1827 1628 2496 2195 3064 2284 2804 2501 2419 2366 2477 2386 2440
64 227 517 1162 1256 1363 1597 1479 1271 1215 1147 1296 1602 2322 2556 2604 2639 2480 2442 2458 2508 2315 1780 2535 2405 2744 2707 2806 2530 2499 2376 2487 2474
29 67 320 672 1223 1321 1572 1755 1629 1494 1492 1469 1512 2103 2436 2707 2658 2640 2435 2499 2442 2736 2711 2146 2445 2696 2476 2756 2828 2734 2560 2478 2506
6 32 84 529 842 1150 1645 1767 1832 1830 1880 1717 1768 1761 2278 2571 2764 2646 2673 2555 2738 2705 2910 2962 2643 2441 2795 2654 2797 2911 3004 2800 2564
0 18 64 193 459 681 905 1247 2106 1981 1969 2197 2022 1992 2012 2261 2649 2833 2741 2824 2714 2940 2966 3080 3194 3131 2843 3037 2944 2912 3017 3104 3038
368 459 558 613 521 417 460 207 250 2343 2218 2335 2528 2276 2305 2290 2762 2813 2984 2924 3082 3055 3066 3165 3207 3411 3375 3254 3230 3250 3135 3135 3193
366 561 662 768 635 437 432 806 620 2343 2698 2530 2694 2823 2961 2805 2816 2971 2931 3048 3064 3216 3328 3265 3322 3310 3550 3500 3466 3407 3391 3383 3180
773 1157 1025 1050 795 745 879 623 554 1188 1727 2881 2687 2525 2806 3386 3503 3336 3296 3202 3299 3409 3540 3584 3567 3624 3594 3755 3685 3615 3655 3579 3612
917 1241 1661 2093 1756 1111 615 417 1274 852 892 1977 2524 2901 3033 2975 3241 3250 3494 3622 3653 3790 3814 3847 3808 3837 3855 3797 3774 3864 3824 3776 3804
988 1153 1697 2118 2338 2643 2992 1715 1306 1314 2972 3091 3701 2915 3096 3239 3393 3375 3065 3701 3729 4097 4085 4090 4051 3988 4010 3977 3914 3880 3941 3967 3917
1104 1209 1413 1683 2050 2683 3432 3264 3111 3192 3552 3295 2458 3343 4270 3643 3752 4161 3647 3835 3903 3980 4219 4142 4099 4128 4078 3891 3799 3885 3909 3822 3826
531 1011 952 1495 1557 2029 2576 2814 3114 3044 3173 3289 3810 2723 4592 4291 4243 4265 4139 3693 4243 4055 3922 4054 4123 4065 3932 3997 4074 3884 3792 3768 3896
80 52 41 427 1177 1566 1926 2255 2510 2433 2873 3237 3291 3818 4392 4587 4101 4035 4243 4271 3793 3689 4058 3959 3866 3919 3979 3912 3795 3667 3461 3294 3109
0 81 175 391 701 1075 1583 1594 1456 1294 1547 2125 3209 3395 3604 3378 3660 3783 4081 4106 4053 3873 3338 3272 3573 3862 3753 3415 3138 2966 2854 2861 2810

GFSFLT1_con_mucape_042.txt.gz
CAPE
165 269 379 461 411 342 303 540 507 377 416 585 928 742 652 685 723 682 634 737 642 248 483 664 780 1408 1716 1760 1463 1367 1226 1268 1538
137 445 531 496 563 389 356 439 640 585 437 425 886 946 890 907 837 784 846 885 538 507 383 1072 977 1341 1510 1814 1545 1450 1586 1287 1362
52 565 709 604 622 446 446 545 602 727 624 487 616 1070 871 756 1007 1464 983 782 786 956 587 984 1276 1184 1784 1756 1634 1429 1584 1844 1636
257 577 737 629 704 529 575 664 705 847 824 719 787 961 1215 1046 719 689 1611 1517 872 652 1251 1206 1083 1328 1489 1776 1754 1652 1411 1446 2185
312 672 685 713 769 621 690 734 754 740 1115 978 1005 1122 1302 1395 1272 933 743 1622 1949 1321 674 966 1523 1327 1470 1760 1832 1789 1619 1408 1759
0 475 780 807 739 734 778 806 772 955 1088 1315 1243 1301 1339 1491 1582 1459 1133 823 1601 1904 1543 970 1262 1477 1537 1700 1781 1807 1784 1616 1662
0 175 699 842 818 836 851 864 787 842 1084 1598 1598 1611 1615 1494 1683 1806 1636 1331 987 1820 2040 1474 1330 1745 1983 1913 1897 1799 1791 2006 1945
0 198 686 1038 980 939 910 911 842 853 962 1355 1760 1827 1844 1793 1639 1864 2054 1892 1565 1306 1664 2192 1777 1657 1917 2142 2140 2103 1980 1796 1868
0 36 618 1163 1100 1069 1019 989 945 949 957 1170 1598 1849 1957 1970 2036 1905 1983 2200 2138 1848 1564 1463 2081 2176 2071 2039 2275 2300 2312 2190 2074
72 153 743 1201 1229 1181 1173 1162 1091 1063 1028 1038 1554 1783 1885 2128 2148 2310 2229 2218 2285 2333 2122 1860 1456 1758 2154 2159 2360 2523 2466 2453 2358
89 226 741 1150 1351 1382 1413 1363 1249 1175 1064 1090 1203 1649 2031 2121 2426 2394 2463 2353 2293 2270 2378 2445 2265 1818 1843 2211 2165 2345 2681 2738 2644
447 269 441 694 1199 1329 1588 1708 1746 1591 1465 1437 1384 1415 1574 2262 2394 2653 2559 2554 2455 2396 2428 2442 2608 2605 2421 2118 2176 2419 2467 2657 2799
1400 1342 732 613 790 1034 1185 1400 1589 1929 1959 1896 1815 1767 1750 1760 2425 2563 2705 2655 2648 2627 2597 2704 2666 2707 2846 2868 2753 2617 2770 2799 2723
1685 1667 1719 1971 1916 1260 1071 1110 796 1675 2035 2102 2116 2085 1963 1925 1951 2425 2598 2737 2728 2751 2828 2729 2793 2877 2884 2978 3134 3168 3166 3093 3113
1340 1505 1576 2192 2797 2599 2092 796 1053 642 1409 2221 2275 2217 2377 2297 2325 2266 2545 2643 2778 2848 2826 2993 3042 2978 3034 3102 3100 3305 3374 3365 3384
1121 1443 1581 1721 2143 2634 2740 2619 2691 2830 2896 2432 2520 2529 2583 2734 2866 2868 2823 2810 2793 2881 2979 3017 3162 3246 3283 3338 3467 3561 3566 3675 3720
835 1256 1365 1514 1712 1946 2426 2501 2704 2708 2715 2787 3083 1868 3076 2819 2764 2828 3115 3222 3163 3170 3328 3385 3403 3516 3577 3621 3716 3802 3901 3877 3838
776 638 877 1177 1146 1404 1698 2018 2293 2430 2433 2615 2976 3127 3153 3165 3630 3003 3059 3027 3257 3506 3652 3703 3799 3891 3908 3926 3909 3869 3853 3747 3772
405 431 208 116 311 831 1052 1599 1268 1298 1772 1984 2057 2831 3068 3513 4032 3684 3496 3347 3251 3621 3705 3961 3989 3969 4008 3904 3850 3814 3709 3717 3769
0 1 0 150 204 575 982 1264 1234 1352 1514 1800 1842 2035 2809 3222 4009 3919 3917 3758 3586 3437 3700 4042 3970 3979 4025 3942 3813 3895 3740 3647 3201

GFSFLT1_con_mucape_045.txt.gz
CAPE
148 258 500 554 545 468 440 451 398 312 241 202 96 67 104 88 63 28 38 169 526 607 441 360 597 865 1047 999 1102 1154 1150 945 932
141 154 213 292 581 505 447 459 464 444 357 319 244 140 181 192 149 137 106 124 150 403 511 437 323 568 1106 1207 1215 1386 1305 1059 948
159 179 135 158 342 473 486 475 465 436 420 426 377 246 258 328 299 299 284 254 243 352 602 433 470 525 700 1002 1332 1545 1558 1174 1168
83 188 197 152 170 406 452 478 501 430 412 394 361 449 395 422 450 450 459 508 476 454 541 485 672 737 895 1045 1111 1362 1594 1345 1345
1 150 234 207 175 335 466 531 488 497 394 361 351 508 542 552 601 705 829 645 590 596 677 680 431 837 972 1215 1288 1306 1460 1517 1393
0 7 131 191 293 335 453 482 505 503 521 475 469 398 640 644 619 629 828 1292 1196 856 782 736 864 1067 988 1095 1311 1385 1361 1385 1542
0 0 21 265 411 471 575 547 572 488 614 572 565 605 576 841 920 844 654 613 1031 1389 1409 1332 1133 881 858 1171 1273 1467 1505 1527 1562
0 0 76 278 449 527 595 601 652 554 595 818 729 747 808 923 1149 1168 1103 877 753 975 1351 1279 1395 1459 1240 1180 1264 1340 1453 1589 1660
0 49 251 419 552 603 640 645 736 616 725 1002 1058 994 1024 1065 1129 1350 1398 1335 1223 1096 1110 1470 1213 1055 1089 1348 1509 1670 1686 1724 1662
0 0 340 517 542 611 645 694 814 719 840 1042 1378 1365 1352 1374 1353 1386 1572 1662 1627 1484 1318 1197 1562 1535 1227 1283 1396 1744 1965 2003 1949
157 15 251 493 630 676 696 731 774 750 787 1006 1489 1634 1686 1707 1756 1650 1596 1785 1958 1899 1711 1576 1458 1389 1647 1679 1680 1718 1907 2142 2129
644 654 363 771 911 865 849 854 859 925 921 1045 1221 1549 1766 1873 1924 1969 2003 1906 1928 2046 2125 2051 1894 1779 1631 1454 1693 1908 2091 2192 2267
1416 1426 1168 1153 1248 1203 1177 1170 1136 1098 1052 1081 1192 1454 1685 1798 1978 2113 2152 2257 2189 2143 2197 2234 2305 2325 2262 2122 1969 1760 1931 2009 2066
1922 1967 2044 2000 1502 1525 1563 1552 1513 1463 1447 1445 1465 1430 1387 1727 2023 2192 2302 2271 2306 2313 2317 2351 2405 2400 2413 2472 2487 2468 2485 2479 2474
1543 1835 2077 2097 1981 1742 1293 1426 1728 1918 1945 1945 1850 1791 1789 1854 1846 2133 2284 2476 2462 2489 2529 2541 2536 2547 2565 2609 2667 2789 2844 2883 2953
1114 1625 1910 2056 2158 2287 2335 2298 2288 2441 2692 2456 2368 2131 2154 2180 2138 2123 2178 2470 2557 2573 2590 2623 2660 2658 2674 2687 2789 2907 3015 3107 3148
935 1203 1555 1885 1995 1865 1889 2056 2100 2171 2389 2669 2705 2468 2614 2546 2514 2489 2436 2412 2419 2495 2651 2691 2713 2789 2912 2961 3029 3153 3277 3368 3470
687 672 1015 1224 1476 1624 1560 1532 1646 1716 1736 1843 2235 2725 2789 2878 2698 2833 2749 2815 2829 2849 2883 2861 2838 2924 3004 3131 3266 3385 3497 3640 3784
374 418 458 552 450 565 967 1084 1082 1294 1598 1700 1637 1663 2162 2800 3009 3417 3141 2850 2885 3088 3261 3262 3318 3381 3388 3477 3675 3832 3973 3945 3854
327 169 28 7 0 142 686 1032 994 1035 1470 1319 1230 1195 1496 2166 2826 3199 3626 3422 3123 2895 2792 3373 3646 3829 3912 3967 3987 4000 3791 3629 3687

GFSFLT1_con_mucape_048.txt.gz
CAPE
292 325 302 208 158 153 119 124 90 37 20 42 186 150 148 147 21 0 0 0 0 0 0 163 424 570 798 882 910 994 933 983 1036
230 256 285 383 366 247 173 146 220 122 64 35 49 147 158 119 91 0 0 0 0 0 25 118 256 513 844 858 963 957 1043 1024 1024
123 211 205 171 398 413 380 307 189 269 258 134 80 37 67 59 93 33 25 27 7 8 90 356 394 434 732 951 991 969 999 1258 1261
136 195 174 159 321 385 403 434 431 323 283 340 243 227 149 177 120 46 48 50 48 39 13 83 384 417 486 671 944 1089 1104 1276 1552
129 211 207 199 168 192 365 357 395 430 401 356 349 337 317 289 268 166 152 150 119 124 80 34 227 487 539 781 883 1011 1112 1255 1498
1 82 149 184 173 129 275 325 320 358 395 404 405 374 394 386 388 339 301 300 273 234 233 183 223 440 614 758 1071 1170 1106 1228 1329
0 2 21 85 114 101 135 295 256 362 371 380 395 392 432 429 439 414 479 519 523 400 420 425 408 452 561 762 960 1258 1343 1307 1315
0 0 0 7 71 108 120 290 266 426 426 396 408 403 506 556 515 491 518 687 973 957 573 510 479 494 556 760 979 1144 1435 1526 1492
0 0 0 0 22 118 175 292 349 380 535 513 460 457 487 621 670 636 565 480 508 923 1137 934 846 815 735 713 837 856 1075 1298 1633
44 78 0 0 0 107 234 318 383 398 536 645 595 539 511 605 797 932 918 850 679 612 710 1144 1144 993 923 1030 1194 1123 1116 1212 1518
66 348 100 0 52 205 276 338 390 396 513 807 783 704 779 864 949 1097 1169 1212 1185 1062 858 830 1227 1332 1126 980 1037 1048 1268 1341 1376
583 652 731 90 195 294 346 416 449 503 658 832 1061 1050 1092 1158 1208 1205 1307 1461 1521 1490 1376 1214 1147 1213 1500 1542 1361 1077 1149 1348 1345
742 788 992 389 392 481 519 534 562 614 719 954 1334 1390 1449 1530 1555 1522 1471 1489 1630 1781 1839 1735 1615 1578 1481 1403 1591 1523 1544 1567 1472
1123 925 949 1063 772 736 721 684 672 688 710 930 1128 1380 1598 1707 1785 1809 1814 1788 1788 1859 1983 2098 2157 2135 2046 1948 1882 1902 1922 1958 1942
1376 1360 1084 1245 1298 1245 1132 1098 1090 1035 1000 933 951 1145 1412 1684 1793 1976 2028 2093 2225 2227 2163 2204 2257 2281 2351 2422 2445 2311 2353 2395 2457
1359 1676 1796 1822 1746 1544 1536 1559 1637 1762 1901 1514 1322 1379 1485 1622 1779 1969 2224 2292 2265 2338 2351 2365 2385 2428 2473 2520 2512 2546 2508 2580 2681
1307 1597 1630 1699 1756 1812 1828 1842 2049 2276 2388 2143 2123 1833 1829 1918 1949 2027 2124 2342 2419 2435 2498 2545 2573 2551 2567 2563 2609 2706 2671 2747 2876
758 945 1409 1529 1406 1441 1463 1586 1705 1744 1851 2118 2435 2486 2374 2348 2398 2315 2323 2350 2405 2494 2602 2589 2610 2668 2729 2867 2876 2784 2831 2948 3119
350 548 838 1056 1278 1209 1079 1051 1043 1444 1354 1192 1260 1544 2091 2496 2680 2479 2620 2522 2518 2564 2595 2600 2655 2702 2755 2778 2904 3021 3187 3445 3677
197 280 271 396 528 555 626 850 658 601 492 349 367 581 800 1194 1989 2634 2999 2665 2738 2738 2643 2909 2972 3023 3038 3240 3475 3632 3717 3848 3887

GFSFLT1_con_mucape_051.txt.gz
CAPE
570 614 571 510 422 493 752 680 773 566 621 762 814 928 1226 1395 1541 777 750 1190 667 650 588 860 1497 1915 1973 2096 2188 2154 2288 2166 2146
509 657 650 580 511 627 765 809 855 795 888 842 829 527 1108 1297 1382 1357 953 1403 1268 723 1169 522 1140 1654 1832 1971 2100 2222 2355 2164 2392
315 647 745 699 613 649 837 674 860 832 905 895 873 841 980 983 1201 1331 1347 1374 1397 1386 915 812 728 1534 1738 1935 2022 2243 2448 2074 2382
85 489 750 809 864 849 805 661 812 886 869 995 974 883 932 1083 955 838 818 962 1147 1481 1093 1110 1319 1616 1732 1880 1999 2127 2374 2297 2240
29 209 620 731 802 886 844 1028 939 809 897 698 934 976 1033 1031 1227 1144 922 1278 1048 1384 1617 1178 1343 1585 1801 1824 1815 1941 2171 2100 1746
0 158 318 522 422 812 1002 1040 1216 999 878 692 667 996 736 981 1161 1067 1327 1413 1281 1465 1369 1387 1139 1281 1846 1880 1825 1884 1982 2051 2156
0 0 157 405 398 1006 1320 1350 1399 1333 1133 898 808 801 871 1216 1301 1337 1313 1579 1687 1313 1766 1685 1415 1502 1846 1845 1873 1920 2017 2095 2239
5 1 0 166 517 936 1083 1471 1472 1483 1462 1346 1070 1240 1224 1322 1465 1533 1624 1760 1860 1745 1853 1860 1913 1686 1698 1662 1594 1449 1881 2081 2251
148 202 233 79 5 670 899 1136 1421 1374 1516 1476 1412 1440 1451 1579 1708 1748 1815 1917 2037 2122 1916 1880 2212 2004 1807 1683 1381 794 949 1642 2185
0 63 136 483 313 3 908 823 1364 1328 1523 1584 1593 1607 1712 1926 1965 1944 1981 2063 2225 2349 2318 1986 2177 1857 1859 2136 2258 1034 926 1046 1910
0 1 22 292 693 48 242 540 733 1249 1394 1726 1708 1748 1828 2053 2135 2092 2142 2158 2215 2351 2201 2504 2314 2099 2301 2352 2322 1403 931 809 1386
195 121 240 530 967 215 418 1039 1321 1483 1695 1793 1788 1837 1917 2009 2154 2224 2304 2311 2302 2160 1958 1984 2247 2243 2354 2493 2550 1462 1208 1091 1705
786 471 571 954 624 253 803 1388 1362 1505 1460 1855 1934 1967 2040 2061 2124 2293 2457 2539 2643 2674 2358 2247 1798 1894 2485 2144 2732 1823 1227 1040 1582
913 577 645 1305 839 1146 1556 1574 1313 1773 1813 2119 1873 1802 1782 2126 2425 2515 2649 2875 3017 2688 2599 2724 2538 2430 2746 2526 2311 2703 1779 1397 1655
1491 849 665 875 1305 920 1142 1472 1737 2030 2160 2377 2584 2672 2625 2825 2869 2278 2219 3045 2884 2766 3030 2989 3026 2914 2802 2680 2689 1927 1955 1685 1739
1619 1370 1011 895 1247 1429 1694 1360 1469 1692 1918 2180 2566 2985 3177 3008 2944 2842 3300 3003 3052 2689 3046 2767 2879 2899 2931 2949 3013 3160 2440 2156 2255
1639 1490 1452 1213 1283 1389 1571 1958 2198 2478 2530 2124 2157 2521 2855 2945 2868 2970 3134 2812 2861 2879 2933 2945 2940 3064 3096 3119 3217 3288 3366 2708 2446
1137 1377 1478 1405 1462 1476 1562 1739 1853 1959 2080 2750 2460 2246 2161 2354 2406 2478 2872 3045 2748 2941 3404 2985 3146 3216 3287 3346 3425 3419 3167 3319 3333
587 901 975 1181 1345 1502 1595 1671 1697 1650 1644 1731 1968 2285 2575 2470 2253 1721 2201 2884 2287 2547 2617 2621 2734 2841 3024 3363 3068 3103 2961 2783 2878
588 670 807 840 938 1021 1124 1209 1207 1003 779 857 935 918 1240 1529 2590 3559 2880 2923 2281 2277 2245 2421 2477 2508 2622 2762 2878 2889 2998 3145 3336

GFSFLT1_con_mucape_054.txt.gz
CAPE
753 890 1011 916 749 558 687 672 604 625 1390 1898 1823 1483 1984 2288 2142 899 1091 1411 1015 879 701 730 1065 2180 2259 2417 2288 2268 2440 2225 1985
482 716 990 1087 1003 873 743 862 1382 1354 1877 1724 1807 1344 2274 2467 2399 2155 1349 2331 1429 1052 1678 671 887 1388 2090 2052 2212 2399 2406 2047 2478
111 483 822 930 1158 1073 977 827 907 1002 1103 1717 1777 1378 1584 1587 1631 1946 2137 1705 2217 1819 1186 1396 975 1274 1554 1533 1876 2297 2596 2059 2320
27 293 782 874 1084 1166 1118 974 901 1047 1066 1286 1379 1713 1855 1815 1557 1543 1598 1609 1686 1860 1745 1598 1840 1443 1324 1332 2032 2236 2527 2323 1999
10 71 447 837 953 1023 1172 1198 1051 1037 1057 1110 1217 1806 2303 2039 1999 2136 1537 1806 1743 1891 2036 1852 2000 1879 1676 1481 1745 2244 2561 2438 1748
13 59 131 543 792 1012 1113 1283 1286 1111 1092 971 1087 1657 1318 1465 1640 1693 2083 2065 1798 2264 2068 2110 1890 1964 2008 1816 1702 2145 2488 2555 2281
0 0 93 295 557 749 1239 1504 2101 2000 1289 1086 961 1190 1204 1793 1733 1943 1642 2490 2600 1989 2491 2303 2203 2187 2128 2028 1744 1668 2087 2251 2403
0 0 0 33 247 713 1587 1819 2328 2183 1470 1650 1424 2007 1303 1918 2499 2357 2522 2832 2882 2522 2678 2403 2339 2330 2297 2155 1883 1349 1933 1982 2053
56 35 126 72 38 512 945 1337 2046 2346 2486 2094 1913 2480 2211 2497 3033 2958 3031 3195 3335 3357 2964 2859 2836 2331 2397 2309 1819 930 794 1233 1805
146 136 242 343 526 361 221 1049 1546 1992 2805 2228 2427 2809 2718 2937 3208 3248 3326 3356 3522 3447 3442 3020 3289 2516 2573 2997 2769 1276 767 715 1493
110 67 72 346 609 768 1072 249 743 1511 1902 2900 2961 3160 3001 3131 3359 3374 3521 3561 3626 3740 3143 3331 3155 2852 3299 3341 3097 1769 1311 835 1631
70 53 103 263 525 917 1251 1373 461 1208 1656 2416 2828 3176 3210 3310 3397 3423 3277 3350 3426 3186 3262 3093 3081 2910 3235 3278 3548 1893 1608 1374 1755
343 317 344 548 1007 1426 1491 1592 379 772 1518 1976 2939 3039 3133 3308 3343 3499 3483 3479 3748 3763 3138 3210 2819 2876 3260 2691 3369 2562 1851 1485 1858
701 641 582 1167 1832 1733 1365 1150 419 1883 2113 2437 2639 2292 2351 2985 3432 3705 3670 3983 3942 3829 3220 3314 3397 3102 3539 3832 3151 3324 2221 1821 2278
1115 817 1004 1662 1681 1485 970 1069 1292 2620 2924 2327 2708 2867 2823 3442 3586 2796 2714 4029 3548 3412 3586 3676 3872 3580 3206 2864 3067 2363 2563 2258 1941
1265 1175 1325 1397 1765 1715 1476 1453 1650 2000 3232 2931 3068 3171 3473 2887 2912 2864 3698 3727 3437 3262 3497 3266 3189 3171 3116 2977 2999 3352 2512 2253 2259
1144 1140 1233 1188 1583 1693 2163 2468 2098 2214 2508 2594 2775 2905 3008 3071 3149 3081 2913 3033 3190 3109 3102 3157 3055 3163 3149 3172 3243 3418 3699 2930 2614
1265 1256 1246 1076 1193 1166 1290 1500 1749 2170 2533 2616 2750 2934 3012 3213 3234 3162 3345 3454 2947 3242 3627 2804 3294 3203 3361 3467 3552 3577 3471 3719 4021
1086 1116 991 1213 1226 1173 1334 1171 1253 1524 1990 2313 2945 2673 2684 2762 2834 3128 3204 3381 2772 2555 2690 2745 2787 2880 3033 3614 3238 3327 3265 3221 3342
468 622 831 676 891 985 1084 1464 1491 1528 1632 1802 1983 2345 3043 3058 2539 2824 3095 2837 2927 1970 1811 2109 2676 2726 2889 3130 3503 3059 3221 3026 2916

GFSFLT1_con_mucape_057.txt.gz
CAPE
735 857 729 550 467 423 859 954 1247 1290 2312 3048 3094 2627 2508 2022 2646 954 852 1645 932 655 461 601 3613 2623 2217 2365 2424 2352 2895 2150 1989
421 844 835 889 682 517 859 1123 1589 1544 2124 2782 2935 2116 2739 2711 2405 1889 694 1604 2556 1360 1697 817 1105 2124 2258 2118 2057 2666 2926 1816 3020
309 474 759 883 1063 856 692 747 953 1520 1967 2600 2514 2409 2807 2659 2529 2625 2182 2366 3325 2303 2464 2622 1450 1960 1651 2122 2630 2736 3675 2594 2768
42 313 576 789 1155 1171 1016 904 870 1041 1416 2159 2269 2428 2604 2323 2367 2248 2316 2995 3125 3334 2862 3267 3041 2668 2304 2271 2357 2785 3881 3639 2641
2 16 370 728 809 1093 1208 1194 1093 1149 1152 1160 1850 2270 2768 2484 2676 2249 2098 2314 2909 3319 3400 3029 3488 3141 2931 2432 2099 2970 3568 2624 2300
0 17 171 512 654 831 1274 1333 1587 1166 1201 1159 1227 2085 2004 2481 2485 2495 2250 2850 2700 3127 3476 3721 2432 3266 3532 3039 2417 3145 3457 3639 3268
4 97 204 247 579 835 1162 1753 2336 2234 1402 1242 1121 1301 1554 2219 2591 2622 2515 2976 3141 3237 3531 3722 3615 3693 3655 3370 2961 2772 2733 3208 3399
0 18 75 229 286 1409 2517 2394 2865 2606 1828 2042 1629 1932 1835 2149 2670 2840 3074 2873 3348 3317 3566 3654 3841 3954 3817 3673 2856 2078 2842 3170 3324
22 0 0 1 187 499 896 1539 2831 2983 2661 2455 2083 2424 2123 2277 2927 3115 3084 3043 3317 3600 3703 3842 3976 3885 3911 3801 2191 1436 1222 1968 2736
135 144 104 144 190 122 382 933 1810 2494 3013 2566 2773 2865 2842 2791 3099 3214 3232 3276 3531 3730 3837 3964 4176 4061 3980 4029 3906 1605 1175 865 2212
327 318 316 388 476 507 541 503 900 1398 2121 3235 3147 3121 3526 3074 3532 3438 3563 3711 3764 3952 3985 4002 4124 4168 4208 4201 3964 2434 1562 1092 2153
562 602 657 638 599 584 793 974 779 870 1833 3317 3256 3697 3393 3606 3494 3839 3903 3903 3970 4098 4127 4138 4095 4170 4312 4379 4263 2392 1989 1504 2021
203 338 660 931 1036 1060 1186 1366 1367 1309 946 2392 3500 3627 3525 3828 3732 4025 4052 4123 4240 4279 4208 4179 3612 3926 4310 3995 4506 3419 2261 1779 2253
94 164 470 747 1614 1727 1897 2086 1774 2103 1525 2155 3165 3509 3738 4120 4036 4173 4293 4450 4439 4451 4387 3724 4296 4167 4267 4393 4051 4334 2785 2225 2811
425 606 627 1105 1849 2356 2247 2208 2309 3111 2770 2327 3459 3695 3892 4138 4295 3696 3648 4488 4483 4478 4474 4495 4703 4540 4367 3599 4540 3240 3255 2721 2238
626 890 1081 1367 1642 2975 2903 2223 1840 2996 2749 3727 3917 4059 4115 4171 4252 4226 4238 4424 4590 4076 4442 3503 3546 3409 3165 2928 2841 3551 2692 2668 2628
766 912 1285 1376 1706 1664 1874 2032 2537 2980 3024 3833 4185 4219 4253 4288 4192 4197 4189 3790 3755 3442 3258 3264 3111 3051 2922 2733 2548 2234 2708 2425 2326
660 800 1021 1240 1458 1517 1494 1828 1851 1905 2158 3693 3207 3992 3807 3934 3504 3436 3948 3774 3369 3344 3638 2899 3200 2716 2450 2204 2742 2739 2858 3196 3436
562 769 1040 1308 1396 1291 1231 1287 1349 1511 1786 2259 3306 3222 3394 3136 3077 3471 3469 3429 2569 2650 2648 2494 2411 2504 2487 3033 2810 2763 2913 2889 3226
517 629 793 1050 1422 1251 1143 1154 1082 1587 1913 2015 2755 3351 3409 3407 2844 3433 3890 3759 3110 2717 2599 2648 2589 2575 2642 2713 2936 3102 2941 2902 3178

GFSFLT1_con_mucape_060.txt.gz
CAPE
376 655 533 650 668 684 563 524 577 854 1405 1484 1604 2116 1153 1342 2278 1354 1443 2613 1520 2539 1552 1653 2639 3180 2848 3231 3261 3084 2920 3150 3083
71 253 327 737 793 676 861 774 674 1023 1457 1683 1894 1611 1897 1042 1767 1812 1033 2262 2547 2026 2391 2276 2731 2970 3421 3150 3328 3116 3164 2597 2764
19 15 34 267 921 777 927 876 1010 945 1602 1835 2086 1907 2009 1681 828 1663 1646 1114 2621 1882 2604 2317 2983 3218 3005 3182 3518 3661 3541 2905 3118
6 6 48 226 378 922 840 964 1155 1075 1141 2127 2345 2311 1979 1904 1572 1194 1126 1603 940 2342 2002 3990 3306 3733 3274 3062 3062 3650 3645 3077 3174
352 371 422 170 13 382 929 928 1060 1378 1246 1545 2167 2327 2144 2053 1996 1443 1339 797 1924 2188 2620 2608 3728 3292 3877 2998 3074 3135 3235 3240 2037
447 186 140 116 93 565 1031 940 1071 1227 1359 1300 1941 2312 2133 2191 2127 2049 1669 1244 1024 2160 2296 3151 2567 3370 3047 3292 2801 2820 2963 3249 2963
39 379 417 374 485 804 1292 1229 1298 1319 1267 1305 1434 1975 2067 2061 2068 2018 1855 2006 1147 2235 2461 2269 2679 2769 3190 3068 2793 2480 2555 3251 3180
49 36 280 167 672 924 1490 1742 1770 1707 1612 1395 1413 1591 1783 2111 2264 2075 2108 1857 1966 1281 2039 2489 2755 2854 3078 3133 2974 2460 2315 2561 3062
466 198 74 231 373 909 1048 2040 2178 2054 1867 1791 1665 1669 1763 1937 2275 2242 2317 1987 2223 2267 2157 2438 2815 2966 3054 3209 2930 2211 1651 2007 2335
364 875 506 732 756 819 606 719 1316 2489 2407 2075 2047 2094 1962 2022 2384 2457 2291 2524 2126 2735 2436 2731 2795 2941 3109 3215 3222 2212 1592 1520 2127
127 577 772 703 346 537 470 13 211 2570 2693 2765 2748 2262 2513 2305 2277 2391 2554 2496 2715 2457 2852 2717 2958 3006 3074 3204 3247 2843 2032 1390 1514
188 281 271 615 525 635 1241 1337 1422 1895 2837 2742 2474 3015 2458 2803 2248 2564 2558 2653 2583 2704 2742 2945 2952 3081 3206 3214 3237 2957 2562 1967 1279
10 9 32 340 640 764 1192 1393 1379 1390 1603 3295 2706 2424 3063 2681 2724 2625 2773 2722 2769 2829 2910 2938 3050 3044 3185 3230 3415 3137 2827 2446 1767
0 0 6 17 91 619 1359 2415 2006 1698 1725 1802 3350 2836 2560 3400 3444 2813 3201 3127 3108 3190 3234 3200 3356 3338 3358 3632 3494 3663 3144 2589 2161
0 1 75 317 457 983 2323 3124 2947 2350 2368 2104 2717 3600 3117 3451 3384 3382 3176 3669 3645 3527 3513 3571 3596 3603 3695 3617 3945 3397 3566 3221 2513
4 0 261 710 814 1337 2040 2167 1981 3400 3328 3177 2810 4018 3528 3675 3860 3759 3404 3807 3770 3849 3849 3714 3613 3655 3643 3739 3653 3948 3261 3266 3220
23 44 137 469 818 982 1508 1672 1559 1769 2391 3439 3692 2828 3991 3842 4015 3851 3597 3789 3814 3898 3873 3851 3743 3421 3789 3597 3593 3637 3827 3218 2989
40 133 230 389 646 597 815 1154 1559 1704 2115 2696 3368 3972 4013 3951 3905 3448 3811 3461 3816 3803 3729 3635 3624 3593 3280 3562 3357 3029 2981 2993 2710
13 46 118 340 501 563 676 1150 1437 1944 2166 2243 2881 4200 4065 3784 3719 3685 3739 3352 3202 3305 3442 3220 3247 3116 3104 2611 2579 2384 2183 1826 2505
22 0 18 266 439 552 621 1196 1387 1593 1847 2122 2123 2359 3967 3492 3006 3287 3445 3380 2979 2883 3124 2944 2668 2718 2564 2735 2724 2595 2694 2654 2579

GFSFLT1_con_mucape_063.txt.gz
CAPE
284 200 312 370 342 245 206 199 182 253 301 662 620 262 233 462 1341 281 575 1072 1009 1145 1319 1284 1492 1553 1578 1620 1914 1369 1556 1294 1756
265 491 291 429 402 331 280 164 192 317 369 327 734 565 93 307 991 603 362 557 994 1170 1396 1155 1366 2116 1544 1567 1769 1673 1547 1422 1860
413 522 507 415 464 335 326 226 239 228 482 447 687 706 445 73 363 1147 449 345 750 1140 469 1308 1356 2164 1591 1941 1780 1447 1747 1177 1520
490 370 237 232 335 519 435 301 181 307 636 523 638 589 885 323 73 606 853 512 223 957 731 1381 1988 1918 2309 2135 1877 2073 2011 1426 1736
485 444 165 235 196 413 520 534 406 273 530 795 766 813 709 965 331 97 647 594 587 200 857 877 1931 2061 2041 2043 2055 2162 2094 1911 1604
522 514 315 280 234 335 405 413 561 458 435 994 1022 1108 865 1042 941 253 204 250 470 610 1048 676 1900 2063 1972 1894 1769 1718 2071 2131 1849
593 411 360 275 199 14 1 335 552 509 487 620 1268 1374 1430 1152 1079 1010 302 179 36 826 575 1893 1103 2071 1697 2013 1575 1754 1881 1953 2076
379 476 530 280 246 117 255 138 509 624 586 558 842 1517 1577 1483 1301 1114 1071 572 400 1 1041 760 2062 1463 2299 1835 2058 1731 1637 1826 2175
222 340 398 411 109 94 263 356 534 693 654 774 692 1169 1615 1610 1457 1386 1280 1184 900 695 167 1418 838 1529 1731 2302 2096 2046 1808 1553 2060
231 106 135 274 167 205 135 123 334 151 720 835 929 913 1426 1534 1529 1499 1431 1340 1192 1268 1019 781 1702 1348 1511 1751 2095 2192 2160 1846 1429
29 124 54 109 194 368 533 280 223 322 373 1101 1036 983 1037 1472 1531 1481 1564 1452 1397 1187 1217 1023 739 1437 1775 1912 1968 2352 2279 2132 1725
0 86 67 43 133 79 128 533 523 650 704 1006 1083 1398 1244 1416 1445 1639 1693 1534 1501 1370 1457 1430 1157 1499 1729 2013 2108 2302 2500 2289 1849
0 6 70 67 35 51 47 91 486 631 179 342 777 1450 1632 1531 1478 1607 1685 1735 1474 1657 1390 1413 1771 1531 1874 2044 2102 2241 2442 2482 2194
0 13 10 1 28 36 120 633 1685 1762 1128 869 1123 1845 2071 1867 1693 1529 1761 1755 1832 1623 1795 1700 1667 1976 1904 2080 2279 2303 2417 2575 2402
0 0 1 0 65 100 146 633 1188 1602 1588 1468 1647 1605 2184 2330 2232 1753 1864 1883 1886 1909 1812 1909 1898 1928 2122 2092 2250 2395 2608 2594 2592
0 0 0 0 2 53 190 296 777 1002 1590 1964 2381 2346 2496 2319 2475 2330 1957 2205 2048 2078 2066 2061 2074 2113 2148 2268 2332 2585 2696 2758 2838
0 0 0 0 0 0 32 132 395 545 1107 1428 2056 2424 2678 2777 2517 2703 2299 2600 2288 2299 2272 2354 2262 2360 2373 2390 2405 2655 2823 3050 2982
21 0 2 0 0 0 1 106 301 482 907 1407 1706 2174 2601 2804 2673 2882 2771 2500 2846 2625 2614 2553 2534 2504 2508 2484 2770 2625 2902 3086 3129
36 27 3 0 0 0 0 73 301 573 831 1379 1747 2251 2690 2739 2869 2971 2852 2678 2678 2984 3010 2928 2834 2769 2839 2769 2802 2948 2712 3032 3167
54 15 6 0 0 0 0 68 192 399 455 1183 1828 2000 2866 3367 3213 3158 3053 2935 2614 2684 3118 3149 3078 3071 3006 3031 2985 2640 3011 2880 2606

GFSFLT1_con_mucape_066.txt.gz
CAPE
395 156 425 324 287 332 301 228 145 294 374 234 120 225 389 703 341 221 499 841 693 921 1222 1267 1275 1297 1068 1241 1003 1101 938 1214 1146
189 497 465 407 382 388 279 232 157 175 399 234 148 66 56 186 723 636 319 753 870 969 908 1016 1291 1557 1252 1253 1293 922 1156 1165 1035
291 356 432 492 469 456 387 291 240 160 137 299 251 119 58 0 204 584 754 342 670 1002 998 1049 1036 1602 1457 1151 1250 1230 962 1106 1137
197 349 349 485 500 449 434 422 393 303 249 144 451 346 153 37 17 227 793 660 267 745 1162 1086 1116 1422 1528 1376 1222 1243 1240 1149 901
260 333 397 386 473 468 404 373 369 314 251 222 173 458 356 163 0 60 339 792 540 217 811 804 1165 1350 1578 1479 1304 1318 1220 1366 1191
151 341 352 388 511 503 447 471 392 325 366 345 290 396 411 405 170 0 84 379 639 547 199 607 1583 1538 1723 1618 1504 1535 1601 1577 1454
427 294 350 341 152 217 138 296 445 427 420 534 450 454 491 539 608 259 28 49 318 400 577 132 847 1675 1580 1519 1669 1786 1707 1733 1666
206 256 153 101 160 111 125 120 355 433 450 502 674 578 664 512 703 747 450 197 17 150 266 457 301 1066 1662 1615 1460 1427 1393 1455 1558
75 158 182 214 142 134 156 89 63 337 383 475 794 832 802 913 650 862 852 671 506 194 9 178 539 920 1130 1476 1610 1452 1410 1379 1449
27 89 119 89 130 75 48 87 58 61 100 475 495 1097 1126 1157 1237 1017 943 928 870 763 532 81 280 593 1217 1361 1454 1506 1526 1343 1193
0 0 160 121 34 176 38 87 227 188 281 319 684 751 1394 1559 1497 1439 1355 1153 1020 990 896 748 409 549 540 1057 1440 1794 1790 1623 1497
0 0 4 174 18 49 92 122 304 421 431 377 597 1024 993 1164 1672 1595 1518 1433 1300 1187 1132 1043 982 580 1036 851 777 1117 1540 1813 1790
0 0 0 0 1 1 43 31 397 502 642 241 157 965 1056 1065 1099 1510 1610 1509 1452 1364 1311 1217 1138 1046 857 1190 1384 1430 1458 1686 1561
0 0 0 0 0 0 4 28 129 478 433 412 545 475 846 1085 976 1241 1479 1506 1476 1438 1394 1309 1240 1186 1066 879 939 1227 1506 1651 1624
0 0 0 0 0 0 7 0 0 10 274 327 416 551 461 581 1495 1602 1735 1504 1542 1465 1407 1400 1308 1350 1429 1210 1276 1543 1610 1738 1876
0 0 0 0 0 0 0 0 0 3 1 106 92 85 218 341 1000 1887 1745 1852 1686 1583 1466 1481 1523 1335 1269 1552 1603 1564 1760 1841 1867
0 0 0 0 0 0 0 0 0 0 0 34 108 354 146 324 856 1833 2035 1946 1935 1805 1667 1525 1524 1660 1587 1506 1598 1765 1800 1865 2057
0 0 0 0 0 2 0 0 1 0 2 27 75 231 557 847 1252 1890 2210 2060 2104 2026 1922 1751 1656 1615 1620 1659 1674 1694 1900 1991 2022
3 0 9 1 0 2 0 0 4 2 0 2 18 83 330 1104 1431 2065 2436 2432 2290 2221 2155 2038 1903 1758 1737 1767 1830 1884 1972 2048 2299
12 29 22 12 17 0 0 0 0 0 0 3 5 145 148 837 1554 2384 2640 2537 2563 2426 2398 2283 2121 2022 1968 1980 2031 2058 2175 2389 2362

GFSFLT1_con_mucape_069.txt.gz
CAPE
464 330 248 232 186 155 126 77 41 60 30 21 19 96 134 113 51 116 423 543 685 489 773 1056 1224 1021 1014 1169 899 593 783 868 1195
405 393 155 218 243 182 156 137 123 191 121 68 0 69 84 123 68 3 283 365 657 699 685 992 1220 1147 1073 992 1016 853 882 914 1078
365 342 316 171 265 247 184 194 209 290 247 201 117 27 61 82 195 201 94 254 485 894 861 820 1024 1190 1215 1238 1127 1172 938 1176 1116
114 288 279 248 221 315 291 269 304 313 266 319 256 184 78 62 84 266 507 395 243 433 822 878 905 1000 1268 1355 1388 1200 1249 883 1004
32 66 189 198 206 313 262 304 319 351 339 312 317 292 98 70 32 49 194 370 445 409 267 728 1055 1004 1206 1306 1383 1344 1134 1125 1038
94 204 304 212 206 239 256 319 257 309 211 277 336 326 259 89 41 5 51 135 317 408 414 185 572 874 996 1228 1240 1228 1266 1109 1096
299 320 395 288 240 243 284 331 297 358 266 223 183 242 307 232 135 83 45 30 71 325 422 427 222 820 1058 1242 1254 1242 1267 1188 1225
297 466 381 292 233 313 197 283 284 196 162 209 223 191 244 336 290 219 135 72 36 34 199 284 352 328 1119 1409 1375 1399 1319 1302 1368
16 262 312 259 349 245 189 79 43 53 253 342 374 420 340 339 343 354 310 251 128 62 19 38 119 200 254 869 1235 1333 1384 1376 1420
0 0 79 176 227 167 193 108 128 258 184 186 429 521 433 404 412 452 541 426 352 224 147 120 25 24 139 292 689 1186 1359 1294 1250
0 0 20 76 105 84 119 155 237 550 468 326 298 516 608 554 585 544 571 677 552 486 416 351 268 233 103 167 355 676 1195 1382 1375
0 0 0 0 82 50 146 86 133 538 994 409 242 461 737 930 845 952 841 798 767 714 672 675 664 604 508 390 257 561 918 1093 1083
0 0 0 0 0 120 50 84 116 96 305 434 316 207 547 946 1308 1454 1347 1265 1239 1156 1041 991 968 922 836 761 609 470 478 1160 1000
0 0 0 0 0 0 5 0 55 94 155 199 261 289 339 580 916 834 864 1317 1451 1441 1380 1240 1201 1155 1064 1024 929 740 609 464 915
0 0 0 0 0 0 0 0 1 0 14 86 159 207 193 177 443 664 864 1393 1362 1384 1398 1359 1271 1250 1188 1128 1094 1019 871 946 820
0 0 0 0 0 0 0 0 0 0 92 0 1 135 70 129 102 250 342 1212 1569 1398 1371 1509 1460 1308 1266 1152 1126 1094 1067 1038 968
0 0 0 0 0 0 0 0 0 0 0 0 0 0 100 102 107 191 186 825 1522 1525 1482 1478 1470 1375 1311 1235 1173 1307 1244 1172 1158
0 0 0 0 4 15 5 0 0 0 0 0 0 0 26 145 112 26 336 517 1367 1662 1703 1630 1579 1539 1456 1504 1437 1405 1429 1469 1422
0 0 0 0 2 9 4 2 0 0 0 0 0 0 2 79 96 35 58 612 1018 1851 2058 1826 1619 1685 1722 1767 1737 1679 1650 1571 1651
20 19 4 42 42 4 4 1 0 0 0 0 0 0 0 0 0 11 58 254 966 1554 2073 2116 2025 1895 1897 1949 1973 1899 1786 1710 1613

GFSFLT1_con_mucape_072.txt.gz
CAPE
200 193 229 261 162 73 0 19 28 88 6 19 0 0 1 85 78 104 139 175 220 176 423 651 814 987 872 870 819 629 552 582 869
100 358 228 238 279 179 82 67 85 137 71 38 0 0 0 87 126 89 208 386 471 447 446 705 950 915 988 846 945 926 616 754 827
53 348 421 274 288 290 218 163 206 180 137 147 112 97 54 39 54 76 40 115 368 438 590 639 912 980 951 1005 947 994 909 824 905
56 70 435 407 322 287 283 240 221 226 172 190 210 215 174 65 55 45 0 0 110 343 466 733 831 988 1126 1000 910 968 1032 968 834
173 98 119 445 341 241 186 237 249 267 167 110 226 243 255 156 41 59 104 0 0 101 363 432 705 858 1095 1156 1062 1049 1188 1218 1073
266 297 207 209 250 326 290 156 198 237 258 174 108 242 238 232 132 4 60 108 81 90 175 222 343 641 948 1152 1193 1111 1131 1252 1204
227 430 394 257 293 308 251 233 208 259 253 207 218 212 253 265 229 110 0 0 39 0 57 166 242 371 651 978 1151 1168 1191 1175 1161
41 524 663 418 300 304 316 320 315 296 198 262 284 295 260 225 229 156 84 0 0 8 17 21 91 206 597 907 1195 1149 1224 1236 1252
0 0 267 698 605 386 251 191 194 195 296 335 306 275 275 302 260 247 170 126 36 0 0 36 0 36 323 781 950 1126 1204 1207 1321
0 0 15 73 262 493 395 320 170 242 277 192 169 278 307 301 300 313 306 261 165 79 67 37 9 5 28 255 657 732 1134 1251 1337
0 0 0 0 0 21 142 186 198 474 505 500 254 225 386 322 290 355 401 374 321 276 247 218 175 109 69 62 140 250 618 921 831
0 0 0 0 0 0 40 138 106 124 684 679 304 199 363 517 466 436 462 510 559 448 495 522 440 352 298 255 219 192 154 443 538
0 0 0 0 0 0 0 6 53 93 88 116 229 296 184 689 744 765 806 659 664 597 601 633 732 751 732 705 654 618 544 425 290
0 0 0 0 0 0 0 0 0 19 58 48 20 82 197 208 706 1079 1421 1157 1133 929 873 875 1111 1152 1149 1002 978 957 929 801 625
0 0 0 0 0 0 0 0 0 1 2 0 29 48 65 152 189 307 705 1114 1226 996 1290 1150 1043 1069 1167 1220 1199 1142 1090 1066 941
0 0 0 0 0 0 0 0 0 0 0 0 0 0 38 65 87 128 165 285 328 767 1168 1391 1341 1295 1170 1179 1318 1319 1201 1117 1067
0 0 0 0 0 0 0 0 0 0 0 0 0 0 2 0 0 85 123 78 113 233 1183 1325 1449 1515 1400 1352 1355 1317 1254 1174 1140
0 0 0 0 0 0 0 4 0 0 0 0 0 0 0 0 0 0 0 5 48 123 491 1385 1421 1495 1478 1479 1389 1408 1343 1223 1228
0 0 0 0 0 0 0 15 10 0 0 0 0 0 0 0 1 0 4 0 27 10 131 702 1576 1461 1366 1533 1497 1443 1510 1451 1297
0 0 0 28 7 0 1 8 9 2 0 0 0 0 0 0 0 0 0 0 0 9 0 197 866 1863 1836 1681 1587 1609 1557 1599 1442

GFSFLT1_con_mucape_075.txt.gz
CAPE
58 445 589 387 122 105 139 159 263 269 410 877 654 729 1103 1302 1188 987 998 1394 1148 1383 1364 1534 1955 2330 2175 2202 1989 1807 1850 1804 1764
108 342 258 557 427 200 193 208 300 359 561 727 608 639 986 1136 1198 1139 1085 1197 1385 1202 1531 1285 1884 2004 2276 2182 2197 2126 2041 1652 2325
66 129 498 546 714 342 326 253 286 310 389 662 927 691 786 755 717 863 1119 1268 1434 1405 1517 1746 1635 2067 2193 2310 2321 2252 2245 1879 1942
103 307 433 723 654 356 335 368 268 261 316 393 437 454 887 835 771 658 859 973 1252 1623 1808 1980 2034 2121 2128 2261 2334 2412 2477 2355 2104
191 128 281 526 648 475 399 400 312 297 340 323 343 564 629 658 810 756 663 808 922 1176 1651 1819 2073 2195 2270 2295 2328 2403 2446 2350 1953
495 334 239 278 489 476 481 421 271 212 256 252 346 495 313 202 410 726 793 901 901 988 1151 1563 1573 1919 2180 2326 2351 2409 2450 2519 2428
265 473 556 606 319 397 464 448 440 416 298 232 337 377 419 408 261 262 658 1216 1253 1024 1070 1329 1410 1658 1878 2099 2397 2464 2435 2422 2517
2 222 301 323 478 457 366 320 421 394 353 353 386 560 529 613 809 477 325 876 1336 1106 1098 1070 1172 1341 1473 1708 1750 1751 2190 2360 2491
0 0 0 112 149 269 279 263 270 291 266 309 317 383 713 945 965 1067 1066 1175 1274 1270 1090 1079 1124 1026 1372 1408 1161 689 776 1569 2187
0 0 0 0 12 96 123 119 166 197 246 344 475 575 624 730 1092 1067 1230 980 1022 1119 1268 1146 1169 1027 1024 1482 1708 841 571 912 1499
0 0 0 0 0 7 40 84 258 416 428 418 498 832 679 862 854 901 1082 1116 1062 1215 912 1086 1043 984 1178 1311 1256 586 538 619 1304
0 0 0 0 0 0 1 1 3 94 265 504 409 430 267 264 712 1157 1049 1124 1196 1184 977 845 799 841 984 1226 1383 353 177 244 936
0 0 0 0 0 0 0 0 6 8 38 74 141 330 318 268 396 552 1225 1282 1370 1359 1378 1118 960 839 860 600 1087 565 420 317 378
0 0 0 0 0 0 0 0 0 0 0 23 62 67 128 211 202 478 695 1043 1748 1531 1693 1658 1578 1492 1392 1253 1021 982 920 791 679
0 0 0 0 0 0 0 0 0 0 0 0 0 16 17 54 96 212 267 578 793 1075 1211 1431 1702 1758 1832 1776 1632 1083 1104 1122 990
0 0 0 0 0 0 0 0 0 0 0 18 0 0 0 29 52 45 66 103 123 465 555 1000 1584 1763 1757 1754 1816 1841 1110 1084 1152
0 0 0 0 0 0 0 0 0 0 12 29 0 0 0 0 0 0 0 0 10 30 103 498 774 1577 2015 1953 1819 1945 1933 1413 1235
0 0 0 0 0 0 0 0 0 0 3 32 1 0 0 0 0 0 0 0 0 7 27 87 577 1150 1531 1953 2140 2058 1712 1732 1861
0 0 0 0 0 13 8 25 30 13 17 18 1 0 0 0 0 0 0 0 0 0 0 0 21 147 503 873 1455 1569 1589 1369 1147
0 0 0 0 0 0 0 0 6 9 9 10 0 0 0 0 0 0 0 0 0 0 0 0 0 0 2 478 1034 1368 1322 1255 1102

GFSFLT1_con_mucape_078.txt.gz
CAPE
27 818 1206 843 708 700 651 588 628 778 1001 1524 1670 1600 1751 1999 2096 1615 1417 1327 946 1042 1199 1402 1759 2554 1722 1779 1841 2069 2458 1528 1243
312 471 1128 1087 851 744 741 776 792 907 1125 1508 1596 1491 1664 1870 2082 1934 1190 1108 1290 1211 1442 1195 1830 2240 2174 1800 1797 1882 2253 1692 1840
214 560 882 1112 1147 846 772 814 898 1047 1184 1395 1631 1458 1477 1623 1732 1879 1767 1488 1431 1470 1158 1755 1469 2358 2363 2088 2264 2386 2516 1789 1881
368 563 641 828 837 1047 861 831 894 968 1146 1287 1543 1529 1463 1496 1486 1580 1719 1508 1445 1732 1529 1694 2188 2522 2414 2312 2223 2325 2855 2488 1912
196 597 570 532 654 904 1013 950 993 985 980 967 1186 1252 1580 1619 1961 1473 1321 1505 1386 1584 1777 1760 2231 2562 2653 1884 2067 2343 2809 2522 1827
295 162 310 289 575 347 464 749 989 919 918 877 867 939 901 1089 1144 1337 1306 1329 1496 1512 1685 1714 1594 2152 2679 2509 1997 2479 2704 2806 2611
287 345 297 172 246 241 263 408 517 591 924 817 759 852 1034 972 1118 1191 1215 1325 1497 1560 1689 1751 1607 1741 2129 2439 2242 2221 2629 2851 2927
10 63 132 309 497 337 351 352 173 244 324 390 1112 1012 1012 1119 1304 1221 1175 1010 1344 1569 1744 1783 1792 1622 1735 2020 2099 2058 2685 2802 2754
0 0 2 83 64 108 138 151 189 284 242 328 556 1085 1131 1348 1323 1428 1536 1371 913 1540 1710 1871 1904 1837 1567 1464 1071 713 1039 1451 2482
0 0 0 0 0 8 21 79 87 188 248 243 508 725 1292 1071 1228 1556 1589 1630 1713 1629 1616 1827 2012 1881 1821 2002 1833 485 334 647 1364
0 0 0 0 0 0 0 0 82 275 400 408 511 506 579 734 818 1255 1785 1875 1919 1810 1760 1743 1767 1803 2166 2026 2089 999 630 403 1189
0 0 0 0 0 0 0 0 0 19 114 84 183 294 342 224 163 212 901 1664 1784 2092 2052 1948 1756 1710 1868 2180 2253 1231 778 566 1089
0 0 0 0 0 0 0 0 0 0 0 31 88 59 133 227 170 172 198 415 1382 1805 2011 1708 1780 1731 1766 1478 1930 1472 1096 611 917
0 0 0 0 0 0 0 0 0 0 0 0 9 15 13 26 147 130 108 165 531 1172 2150 2633 2414 1956 2210 2285 1782 1747 1072 825 974
0 0 0 0 0 0 0 0 0 0 0 0 0 0 17 12 11 127 192 166 319 796 670 1117 2030 2298 2789 2252 2724 1685 1406 1099 845
0 0 0 0 0 0 0 0 0 0 0 0 1 5 0 0 0 0 6 66 80 93 225 614 1339 1834 1775 2659 2179 2539 1830 1568 1262
0 0 1 8 11 8 10 8 7 9 3 1 1 6 9 1 0 0 0 0 10 20 40 71 157 528 1684 1920 2522 2788 2149 1672 1340
7 7 8 0 0 0 0 0 14 24 37 31 6 6 8 2 0 0 0 0 0 0 0 3 8 24 152 451 1248 2359 1169 1249 2448
0 0 13 9 0 0 0 0 0 6 10 9 29 39 7 0 0 0 0 0 0 0 0 0 0 0 0 0 50 185 391 550 1393
0 0 0 0 0 0 0 0 0 0 0 0 0 2 34 15 3 2 0 0 0 0 0 0 0 0 0 0 1 38 40 123 465

GFSFLT1_con_mucape_081.txt.gz
CAPE
515 904 552 497 723 715 454 230 440 711 1310 1935 1913 1884 2731 2940 2440 1669 1207 1711 2200 1834 1422 1742 2919 2168 1867 1844 1838 1949 2127 1889 1853
741 204 1077 845 791 524 591 621 413 816 1462 1830 2068 1878 2682 2835 2868 2540 1779 2257 1900 1184 2643 1511 2082 1670 1821 1837 1855 1927 2274 1984 2596
498 1182 809 533 635 802 801 783 529 768 1150 1620 2054 2052 1985 2019 2166 2476 2364 1627 1875 1598 1760 1589 1103 1745 2546 2161 1806 2000 2355 2732 2529
517 739 753 608 406 840 673 1002 1013 966 1140 1462 1860 2039 2136 2204 2189 2041 2262 1964 1718 1872 1688 1796 1742 2147 2618 2254 2650 2240 3207 3078 2483
298 280 396 431 448 541 498 549 675 895 1089 1279 1606 1860 2656 1985 2438 2478 1883 2131 1901 1888 2362 1946 1998 2352 2327 2396 2046 2608 2670 2377 1788
363 358 241 197 244 339 410 564 607 608 698 999 1187 1591 1777 2006 1896 1831 2014 2259 1996 2636 2377 2404 1529 2258 2867 2510 1963 2856 2882 2663 2767
306 210 164 62 63 58 223 442 555 564 638 690 717 1126 1515 1648 1778 1744 1844 2396 2830 2067 2947 2629 2335 2432 2895 2575 2064 1984 2318 2848 2843
124 168 181 164 111 80 39 140 341 433 578 676 801 1396 1406 1882 1773 1640 1765 1918 2267 2403 2868 2848 2890 2917 2651 2752 2091 1864 2635 2661 2846
0 19 47 90 154 105 108 141 115 143 283 305 330 584 703 901 1836 1882 2080 1989 1944 1997 2245 3283 3553 3048 2995 2673 1409 680 952 1793 2980
0 0 0 0 26 78 59 76 78 204 196 145 204 424 567 729 793 1129 1610 2234 2571 2341 1971 2571 3442 3320 3139 3267 3167 1248 435 776 1627
0 0 0 0 0 0 0 7 30 96 135 267 403 592 271 738 916 671 815 1282 1913 2304 2547 2657 2824 3144 3482 3594 3176 1795 1085 544 1761
0 0 0 0 0 0 0 0 0 8 48 330 74 33 308 623 602 268 318 575 1059 1603 2422 2272 2185 2262 2947 3007 3496 2088 1487 1163 1419
0 0 0 0 0 0 0 0 0 0 0 0 0 0 25 13 92 130 131 129 214 441 1518 2017 2735 2017 2555 2035 2923 2403 1929 1549 1476
0 0 0 0 0 0 0 0 0 0 0 0 0 0 1 2 0 0 58 103 102 156 219 678 1729 2186 2603 3022 2549 2720 1719 1543 1937
0 0 0 0 0 0 0 0 0 0 0 0 0 0 0 0 0 0 0 2 59 74 96 147 655 1662 2097 2723 2830 1986 1879 1654 1405
0 0 4 1 2 2 1 4 3 1 2 3 1 0 0 0 0 0 0 0 0 6 104 377 383 488 1308 1552 1710 2900 1564 1503 1668
0 3 5 0 5 7 7 12 11 8 7 6 7 13 3 0 0 0 0 0 0 0 2 9 17 86 359 578 859 2073 2216 1058 893
1 0 0 0 0 0 0 10 8 0 20 21 17 8 4 2 0 0 0 1 0 0 0 0 0 3 3 44 167 254 602 675 642
5 7 7 8 8 8 1 0 0 0 0 0 0 8 5 0 0 0 0 0 0 0 0 0 0 0 0 2 0 9 78 153 235
0 0 1 8 10 8 0 0 0 0 0 0 0 0 0 0 3 3 3 0 0 0 0 0 0 0 0 0 0 0 0 0 0

GFSFLT1_con_mucape_084.txt.gz
CAPE
101 101 603 305 677 618 809 108 386 1017 2112 2400 2244 2083 2446 2742 2962 2264 2110 2573 2954 902 734 1111 2077 2499 2815 3099 2666 2463 2836 3343 2915
567 832 945 591 656 594 944 226 570 1005 2047 2455 2597 2409 2724 3206 3107 3001 1650 2401 3142 2348 1880 838 2097 1161 2608 2883 2890 2624 2726 2345 2982
322 496 546 405 351 231 989 382 653 1323 2143 2468 2513 2299 2659 2807 2998 3028 3092 3443 3352 3329 2717 1086 662 919 1323 2971 2962 2755 2927 2486 2308
316 521 556 288 182 219 391 614 303 943 2135 2412 2591 2556 2542 2512 2635 2834 3110 2956 3291 2995 2890 1683 907 0 884 2626 3131 2811 2951 2352 2162
236 332 351 199 76 141 247 110 575 659 462 1597 2150 2350 2714 2713 2933 2561 2725 2857 2902 3271 3134 3149 2991 2355 2580 2872 2698 2540 2676 2751 2150
66 108 193 251 128 61 169 200 168 357 380 555 947 2135 2565 2610 2555 2675 2674 2872 2792 3187 3171 3016 2662 2650 3165 3040 3108 3194 2956 2740 2864
126 79 125 110 91 149 173 164 161 95 403 386 540 914 844 2490 2612 2584 2394 3188 3210 2957 3297 3139 3026 3019 3246 2852 3025 2993 2873 3121 3021
74 94 67 60 18 36 55 64 59 120 131 206 367 464 558 890 1187 2231 2825 2865 2631 3169 3130 3096 3255 3189 2911 3226 2963 2259 2598 2870 2985
0 25 68 98 90 95 87 40 0 21 69 72 79 234 377 461 567 937 1618 2326 2454 2651 2998 3259 3275 3035 3130 2817 1993 1316 1265 1670 2215
0 0 0 0 0 19 43 25 8 11 12 5 14 117 148 151 352 656 996 962 1925 2310 2393 2374 2893 2991 3129 2970 3019 1946 1331 763 1957
0 0 0 0 0 0 4 24 29 27 15 77 26 44 143 125 258 318 393 596 941 1072 1124 2252 2247 2422 2818 2888 2949 2497 2064 1609 1208
0 0 0 0 0 0 0 0 0 17 48 50 67 74 120 143 256 191 352 369 412 907 854 944 1459 2127 2287 2485 2773 2274 1912 1979 1613
0 0 0 0 0 0 0 0 0 0 0 0 0 0 0 0 0 0 56 98 77 144 543 739 691 1074 2012 2009 2159 2236 1946 1751 1839
0 0 0 0 0 0 0 0 0 0 0 0 0 0 0 0 5 0 6 8 0 38 69 238 323 711 1554 2011 2011 2349 1873 1709 1602
0 0 0 0 0 0 0 0 0 0 6 9 12 13 4 0 1 3 0 0 0 0 0 102 296 396 807 1933 1888 1392 919 818 966
0 0 0 0 0 0 0 0 0 0 6 11 14 7 5 23 8 0 3 8 0 0 0 9 210 220 256 215 271 409 604 730 769
2 4 0 0 0 0 3 1 3 0 3 17 10 15 16 5 0 0 0 0 0 0 0 0 0 0 0 0 33 235 453 630 926
1 3 5 3 0 0 0 0 0 0 2 9 0 0 2 1 0 0 0 2 5 1 0 0 0 0 0 0 0 0 49 430 346
3 4 0 0 0 0 1 0 0 0 0 0 0 0 0 0 0 0 0 0 0 0 0 0 0 0 0 0 0 0 0 0 4
0 1 0 1 0 5 11 12 0 0 0 0 0 0 0 0 0 0 0 3 2 0 0 0 0 0 0 0 0 0 0 0 0

GFSFLT1_con_mucape_090.txt.gz
CAPE
102 49 48 73 72 99 142 164 485 763 302 213 225 321 740 723 845 658 579 619 591 761 688 804 1050 1275 1394 1167 947 844 1126 1222 1241
178 121 49 65 66 110 127 118 251 697 647 378 354 359 572 603 999 687 668 635 398 764 812 188 860 748 1175 1279 1306 745 1390 1337 1341
106 93 31 36 49 126 112 167 142 354 909 698 489 616 655 755 762 1075 755 726 975 898 845 514 1138 997 1061 1133 1364 1290 1060 1358 1052
176 112 90 268 35 64 115 178 136 359 536 797 910 867 954 795 1166 1156 1058 1195 1319 1189 827 678 926 794 805 875 1166 1426 1167 1070 1031
195 203 273 314 159 102 110 196 113 242 397 418 524 631 976 1130 1142 1403 1275 1163 1455 1575 1161 880 705 710 435 767 974 1160 1344 1238 1273
414 358 373 298 209 156 211 161 100 110 132 189 255 455 630 903 835 987 1323 1610 1691 1695 1534 833 681 851 757 259 444 700 1440 1513 1106
308 501 548 328 287 290 244 153 125 89 152 154 105 167 229 309 589 930 1210 1279 1437 1331 1564 1375 1016 1017 985 855 977 1042 1067 1417 1381
24 218 200 227 281 161 144 121 80 76 125 177 94 63 167 167 196 401 666 1067 1365 1619 1413 1336 1430 1349 1419 1559 1361 1412 1389 1529 1776
71 395 322 189 229 175 85 98 119 125 117 164 80 90 70 91 101 247 249 561 820 1006 1197 1318 1408 1473 1397 1304 1560 1914 1638 1471 1358
160 67 124 161 192 112 84 41 19 64 136 145 129 77 80 58 77 95 64 133 207 413 640 905 1031 1191 1310 1404 1562 1446 1465 1458 1348
119 152 122 135 77 43 60 136 89 25 0 18 72 75 80 37 33 42 65 107 146 182 188 388 789 966 939 945 1129 1294 1360 1361 1187
85 141 164 144 128 118 100 72 86 79 34 0 0 16 0 1 48 85 47 39 82 141 94 128 224 467 604 731 812 763 888 1004 1164
0 0 0 0 0 0 9 51 68 61 77 79 89 82 71 62 46 64 97 108 116 108 105 92 108 152 301 304 461 710 613 719 912
0 0 0 0 0 0 0 0 0 0 0 0 13 19 0 0 0 0 6 15 17 3 14 38 72 75 95 189 236 195 173 230 373
0 0 0 0 0 0 0 0 0 0 0 0 0 0 0 0 0 0 0 0 0 0 0 0 1 0 39 77 165 165 137 84 156
0 0 0 0 0 0 0 0 0 0 0 0 0 0 0 0 0 0 0 0 0 0 0 0 0 0 0 0 0 0 21 37 44
0 0 0 0 0 0 0 0 0 0 0 0 0 0 0 0 0 0 0 0 0 0 0 0 0 0 0 0 0 0 0 0 0
0 0 0 0 0 0 0 0 0 0 0 0 0 0 0 0 0 0 0 0 0 0 0 0 0 0 0 0 0 0 0 0 0
0 0 0 0 0 0 0 0 0 0 0 0 0 0 0 0 0 0 0 0 0 0 0 0 0 0 0 0 0 0 0 0 0
0 0 0 0 0 0 0 0 0 0 0 0 0 0 0 0 0 0 0 0 0 0 0 0 0 0 0 0 0 0 0 0 0

GFSFLT1_con_mucape_096.txt.gz
CAPE
62 62 41 119 150 144 171 173 159 165 51 9 8 163 221 281 281 385 402 397 356 435 485 523 522 726 987 934 872 733 502 802 1011
78 45 92 99 112 87 101 107 263 157 138 48 29 146 261 318 401 430 368 285 422 465 543 470 465 741 900 928 964 954 710 890 954
135 93 58 52 59 8 44 80 233 213 187 169 141 157 165 281 436 490 463 422 423 475 367 466 524 527 446 776 838 887 978 842 1034
212 161 102 57 115 94 88 92 164 441 277 196 203 189 104 150 321 502 526 505 440 532 608 683 553 568 427 544 710 883 1112 1050 886
259 192 164 136 93 114 73 30 155 214 403 328 219 211 178 201 159 318 443 448 450 608 759 726 568 464 634 667 690 684 904 1024 1079
212 242 195 166 140 95 82 53 82 134 170 152 140 195 323 418 503 519 598 587 610 655 719 712 666 577 633 564 399 443 593 723 880
367 231 146 155 99 83 109 90 108 90 76 64 57 47 116 219 313 331 321 393 524 567 622 780 850 806 907 834 589 550 590 429 918
412 613 631 263 175 78 87 130 146 158 139 130 80 91 60 49 68 100 85 149 211 313 476 672 883 959 897 859 810 818 787 691 799
311 340 465 548 374 253 224 335 181 178 144 125 111 112 78 29 47 78 71 74 67 117 216 309 349 462 680 907 891 955 1060 1151 1211
149 227 169 173 354 398 359 280 222 138 110 94 69 25 43 41 37 71 55 50 41 63 16 76 68 112 280 369 500 595 886 1101 1206
59 117 209 262 465 357 209 166 173 119 94 118 36 24 12 35 24 40 71 48 23 31 44 37 52 59 50 88 173 395 556 649 740
121 195 220 453 285 189 260 328 201 213 293 127 91 29 47 36 40 21 39 20 29 14 2 9 28 48 121 66 68 133 298 376 505
75 100 409 377 256 171 134 172 96 89 37 52 27 42 17 149 37 3 0 3 0 0 0 2 4 45 57 63 78 98 122 176 224
166 230 227 168 200 72 28 37 47 36 15 4 1 1 0 0 0 0 10 11 21 22 13 8 17 26 42 49 55 72 77 93 97
96 63 31 29 22 5 0 0 0 0 0 0 0 1 2 0 0 0 14 10 16 24 21 12 4 16 10 31 31 47 91 99 86
0 0 0 0 0 0 0 0 0 0 0 0 0 0 0 0 0 0 0 0 0 0 0 0 0 0 0 0 0 0 1 0 0
0 0 0 0 0 0 0 0 0 0 0 0 0 0 0 0 0 0 0 0 0 0 0 0 0 0 0 0 0 0 0 0 0
16 10 13 0 0 0 0 0 0 0 0 0 0 0 0 0 0 0 0 0 0 0 0 0 0 0 0 0 0 0 0 0 0
15 19 18 0 0 0 0 0 0 0 0 0 0 0 0 0 0 0 0 0 0 0 0 0 0 0 0 0 0 0 0 0 0
15 0 0 0 0 0 0 0 0 0 0 0 0 0 0 0 0 0 0 0 0 0 0 0 0 0 0 0 0 0 0 0 0

GFSFLT1_con_mucape_102.txt.gz
CAPE
333 230 388 336 455 766 880 860 1010 831 1113 1465 1476 1318 1479 1620 1175 661 545 791 1371 884 1445 1128 1790 1366 1510 1641 1470 1939 2140 1971 1608
468 280 292 353 513 800 825 878 1076 999 1020 1321 1323 1109 1383 1278 929 934 1043 1013 1248 1239 1165 1682 1772 1786 1545 1707 1641 1933 2027 1508 2010
494 313 158 293 479 740 614 746 1023 889 1102 1303 1092 961 1065 1019 966 952 644 903 761 1164 1784 1843 2003 2047 1893 1519 1548 1465 1792 1484 1661
665 535 471 313 401 742 917 985 829 508 1101 1240 1130 935 815 871 928 742 1048 947 793 1097 956 1592 1799 2228 2115 1847 1679 1782 2204 2024 1577
640 475 623 688 448 480 834 858 587 545 812 776 1063 927 1074 925 520 819 673 1037 853 1190 1079 1472 1404 1674 2286 1790 1291 1585 2038 1725 1211
1177 893 781 840 920 680 700 341 181 192 457 1041 804 1176 1000 1348 543 532 788 920 1019 1252 1052 1158 1264 1601 1555 1179 1666 1612 1611 1577 1639
1027 984 899 961 1028 957 1044 697 377 178 179 421 590 891 1010 707 740 742 792 1035 1352 1257 1665 1013 1035 1248 1691 1414 1231 1506 1725 1595 1619
781 745 744 830 812 865 975 1025 678 403 145 61 90 231 258 623 970 1042 1236 1223 1438 1500 1588 1228 1940 1413 1768 1819 1557 1084 1879 1916 1804
711 832 781 905 853 870 914 954 887 643 540 324 229 68 38 59 143 373 764 1017 1206 1313 1528 1762 1808 1834 1794 1588 1243 714 654 690 1837
778 638 666 878 1028 972 1000 1150 990 913 586 373 295 75 40 41 124 154 185 284 618 836 1043 1134 1144 1185 1172 301 253 304 359 488 1544
691 616 519 423 388 335 305 314 482 454 397 409 380 263 136 227 101 52 42 48 104 252 304 510 725 392 144 43 25 192 361 615 1466
774 689 793 813 647 410 335 305 322 321 326 281 349 181 101 125 40 36 8 15 46 73 278 322 426 103 5 24 52 58 173 269 313
476 852 514 559 609 354 390 511 559 515 379 330 630 269 143 52 62 65 89 65 30 37 165 143 103 19 9 0 22 53 52 36 56
318 472 558 549 250 453 335 263 467 495 348 441 361 184 116 47 61 118 50 18 0 0 14 18 6 4 0 0 19 18 51 36 33
255 355 412 323 503 362 437 283 466 323 235 269 228 199 113 20 50 95 0 0 0 0 0 32 2 0 0 4 5 3 6 2 2
384 390 461 410 310 244 279 224 303 387 347 240 187 91 39 10 6 0 0 0 5 0 0 0 0 0 0 0 0 0 0 0 0
277 240 242 77 96 158 83 64 45 32 27 10 15 19 15 9 2 3 0 0 0 0 0 0 0 0 0 0 0 0 0 0 0
208 162 111 83 99 102 88 0 0 0 0 0 0 0 0 0 0 0 0 0 0 0 0 0 0 0 0 0 0 0 0 0 0
54 60 7 0 0 0 0 0 0 0 0 0 0 0 0 0 0 0 0 0 0 0 0 0 0 0 0 0 0 0 0 0 0
0 0 4 15 8 7 0 0 0 0 0 0 0 0 0 0 0 0 0 0 0 0 0 0 0 0 0 0 0 0 0 0 0

GFSFLT1_con_mucape_105.txt.gz
CAPE
16 116 320 207 316 476 656 611 676 543 1230 1498 1520 1415 1474 1465 1327 970 707 1020 1994 1630 1179 1225 2077 1673 1498 1493 1883 1857 2183 1919 1397
238 298 64 173 265 605 639 696 766 1054 1252 1433 1372 1293 1536 1537 1296 1160 1412 432 1618 1777 1314 2120 1981 1380 1495 1533 1532 1784 2062 1784 2094
747 493 227 253 276 366 425 675 782 1084 1125 1213 1169 999 1030 1142 1088 1058 1063 1213 1216 502 1054 1233 2076 1596 1716 1811 1824 1914 2029 2296 2317
787 497 358 249 444 335 644 852 789 970 935 1615 1172 1055 950 833 661 586 781 599 708 974 948 1148 1403 1665 1708 1590 1898 1903 1978 2823 1968
879 665 475 242 289 579 1369 1304 1268 1254 1698 1262 1299 1194 1295 1124 955 689 523 649 647 1079 1234 1390 1430 1794 1654 1367 1691 1785 1978 2284 1278
1066 1088 618 356 295 781 1427 1857 1667 1393 1419 1168 1229 1370 1305 1831 991 827 715 572 664 911 1291 1312 1439 1415 1415 1559 1680 1399 1769 2020 1516
1205 1019 1012 1038 869 696 744 774 824 1031 1093 877 1058 758 1249 1823 1441 900 941 1971 778 910 1405 1375 1219 1663 1884 1652 1554 1629 1432 1588 1760
1713 1489 1093 1068 1230 1447 1530 1249 1062 789 398 387 311 412 884 836 1885 1530 1413 1386 1611 946 1018 1141 1210 1217 2236 1377 1338 788 1282 1519 1721
1140 1110 1211 1318 1295 1278 1465 1460 1288 1141 779 637 387 364 515 951 1104 1189 1479 1413 1396 1416 1283 1257 1308 1337 1527 1463 1302 449 548 803 1815
954 1293 1085 1240 1078 1134 1204 1330 1303 1165 859 540 619 291 280 272 350 240 386 644 1095 1161 1186 1269 1431 1262 1300 1220 716 392 382 515 1130
1164 887 1067 1115 964 876 924 1278 1472 1339 1184 1007 687 674 365 256 144 161 227 177 235 364 598 927 942 824 321 160 102 154 325 457 1442
848 766 469 505 714 793 726 850 691 986 919 770 700 570 528 379 296 166 44 34 60 97 247 433 272 170 109 71 60 85 227 414 1174
596 579 488 516 487 400 314 316 444 352 368 343 300 389 181 57 113 3 10 1 14 13 27 58 99 95 96 82 22 10 20 95 328
429 567 601 493 653 622 361 431 434 443 319 473 454 380 313 209 114 55 79 20 28 2 35 123 122 96 54 18 2 3 28 23 20
269 350 343 273 394 281 509 360 401 554 448 573 447 347 308 193 150 61 138 6 3 9 3 38 15 19 25 5 0 0 1 5 4
303 367 282 419 401 392 358 373 253 334 478 436 390 379 200 119 131 23 75 0 0 0 5 46 22 1 0 0 0 0 0 0 0
386 502 499 502 420 191 283 431 421 250 323 267 290 286 215 247 58 4 0 0 0 0 0 0 0 0 0 0 0 0 0 0 0
430 365 382 289 385 346 272 304 156 73 33 86 63 94 14 8 5 3 5 0 0 0 0 0 0 0 0 0 0 0 0 0 0
207 233 181 203 193 164 8 28 27 13 9 9 1 4 0 0 0 0 0 0 0 0 0 0 0 0 0 0 0 0 0 0 0
8 29 50 0 1 1 0 0 0 0 0 0 0 0 0 0 0 0 0 0 0 0 0 0 0 0 0 0 0 0 0 0 0

GFSFLT1_con_mucape_108.txt.gz
CAPE
10 15 18 210 150 220 304 437 191 1267 2018 1816 1824 2034 2409 2457 1847 2052 1357 845 662 90 164 406 1904 2817 2810 2937 2882 3080 2853 3093 2763
22 57 0 95 158 148 148 826 547 445 1970 2199 2009 1889 2180 2481 2523 1712 2618 1314 582 107 322 470 982 2140 2764 2758 2330 2942 2711 2885 2468
153 28 43 262 174 91 116 481 533 253 1052 1835 1877 1768 1849 1775 1980 2112 2458 953 500 185 75 501 226 838 2536 2645 2199 2202 2931 2159 1748
249 99 66 451 393 382 64 81 176 590 1425 1787 1614 1627 1608 1895 1522 1729 1894 1957 1421 671 307 897 305 1524 2394 2266 2147 2091 2576 2507 2614
347 308 534 382 432 691 362 322 801 401 1255 1474 1321 1034 1791 1946 1604 1346 1451 1929 1563 2329 2368 2868 2261 2490 2630 2679 2523 2580 2703 2296 1986
1360 1165 1078 642 538 211 108 81 12 489 1019 949 1370 1214 1444 1201 1744 1773 1570 1133 1496 2395 2766 2474 2160 2462 2280 2129 2057 1864 2663 2698 2793
1372 1389 1110 842 656 445 150 0 4 176 1146 1133 940 961 1603 472 2054 1541 1741 1205 1658 2299 2717 2363 2508 2037 1485 2168 2348 2027 2309 2722 1986
1590 1460 1197 1051 747 859 1490 452 491 874 821 800 1067 1065 1157 627 758 1283 1801 1541 2254 1695 2024 1594 1713 1910 2025 1726 996 764 848 1732 1967
1642 1225 1050 1348 1488 1230 1300 1277 934 690 711 741 591 421 467 707 816 773 631 783 1226 1603 1916 1754 1786 1643 1843 1378 698 442 271 509 1738
1506 1430 1477 1644 1278 1284 1611 1532 1637 1248 1381 1251 950 610 648 843 1067 725 455 593 889 796 1067 1363 1497 1709 1565 934 701 345 337 308 378
1078 1200 942 889 1115 1201 1236 1378 1212 1123 1376 1150 964 809 732 431 326 187 102 134 432 525 307 390 588 605 421 303 146 123 97 187 235
831 995 828 996 771 681 824 760 847 1135 1260 1164 1085 960 561 329 276 74 93 53 72 80 128 150 128 149 100 34 47 54 109 240 1634
622 576 1037 1003 710 645 746 771 723 635 577 549 419 498 409 407 355 159 25 0 11 17 57 75 72 60 20 9 26 52 84 87 533
351 329 351 727 450 274 323 641 662 644 459 565 410 367 307 260 138 43 1 5 97 11 3 3 13 15 21 39 44 62 44 57 105
222 271 264 336 560 350 371 195 400 442 293 448 349 331 368 332 304 73 19 6 31 15 8 10 35 56 82 25 21 20 9 0 14
168 220 498 444 217 121 194 323 238 347 518 477 347 522 543 475 251 78 164 19 55 4 1 7 22 108 1 14 13 13 0 0 0
369 304 378 298 323 133 241 460 382 280 333 402 381 442 435 488 393 263 177 98 109 0 0 0 9 9 0 1 2 0 0 0 0
297 391 529 344 297 254 138 137 305 236 283 108 278 276 281 171 205 258 173 47 30 1 0 0 0 0 0 0 0 0 0 0 0
216 298 328 240 141 202 312 259 107 108 83 64 95 183 154 134 91 82 92 32 9 1 0 0 0 0 0 0 0 0 0 0 0
9 127 81 201 61 113 31 47 107 17 3 0 1 43 90 86 13 5 6 0 0 17 0 0 0 0 0 0 0 0 0 0 0

GFSFLT1_con_mucape_111.txt.gz
CAPE
6 68 58 36 48 48 101 133 397 693 791 780 692 568 698 550 696 539 389 236 259 298 211 503 491 861 1092 1014 1368 1254 1668 1194 1777
0 14 77 69 58 111 103 96 618 966 833 608 981 894 1018 716 631 485 384 310 276 199 0 127 583 715 884 1093 1391 1210 1305 1418 1123
9 1 30 35 68 71 188 145 549 1187 1040 672 662 1123 965 835 836 700 574 364 131 36 0 0 172 500 787 1068 911 662 1259 1055 814
12 6 0 7 65 107 232 265 445 950 1172 1231 957 1181 822 999 1076 782 664 400 265 188 0 144 253 343 830 1110 817 1050 1198 1158 796
45 65 56 44 75 94 151 244 285 666 595 879 1106 986 826 890 836 840 851 611 426 446 231 434 132 171 937 944 954 1136 969 878 1488
251 91 111 166 323 93 141 169 182 259 507 814 983 800 1004 886 800 883 675 583 647 407 488 817 895 977 883 964 1207 981 1079 1354 969
466 332 205 281 326 194 179 149 89 53 385 500 636 937 974 1031 894 829 817 801 355 1077 879 764 715 1097 846 817 809 713 1152 1221 1189
528 368 345 335 293 278 245 159 114 48 1 114 368 525 663 605 617 796 755 952 499 1106 1139 930 774 808 834 507 509 458 667 819 1147
873 750 598 614 519 267 187 212 212 71 15 1 453 346 378 383 379 389 476 461 489 542 517 483 468 595 559 406 432 336 307 318 750
32 646 823 964 1063 867 699 228 141 223 158 312 321 295 232 232 356 343 332 241 308 326 223 200 170 355 353 378 328 261 245 191 262
316 548 645 680 781 848 935 945 501 541 372 368 303 289 399 496 464 237 106 131 110 220 219 154 171 138 173 99 104 100 62 76 139
178 331 364 496 730 686 567 638 839 655 562 547 395 399 470 372 248 122 85 32 12 93 97 78 114 101 21 19 8 4 17 198 521
328 238 235 536 683 694 335 294 416 622 729 624 577 385 356 302 183 105 6 15 10 22 34 29 30 17 23 11 3 11 17 106 385
79 90 114 144 389 326 380 581 552 550 458 422 323 425 383 333 196 60 37 20 1 0 1 16 13 10 6 5 0 1 0 25 162
94 30 41 76 159 259 368 348 564 478 766 691 586 462 410 403 307 221 154 27 25 0 21 30 25 20 17 17 7 4 1 12 54
50 39 97 219 185 381 343 446 384 342 393 194 297 335 214 344 296 241 338 165 44 55 21 19 15 11 32 7 7 2 2 22 12
36 58 175 89 104 130 59 113 256 73 207 359 418 404 253 418 347 255 265 130 53 46 56 7 0 8 32 2 0 1 11 5 0
66 92 157 50 192 178 135 218 186 303 217 106 318 371 161 328 403 366 198 205 170 193 87 1 1 2 3 0 2 2 0 0 0
67 107 59 202 170 139 66 160 119 7 14 96 167 134 95 164 146 251 192 102 99 111 77 13 5 3 0 0 0 0 0 0 0
46 46 41 47 47 78 39 92 80 66 74 63 76 57 163 122 35 38 31 64 116 160 29 21 1 0 0 0 0 0 0 0 0

GFSFLT1_con_mucape_114.txt.gz
CAPE
63 114 69 9 29 75 74 102 347 270 155 145 227 176 358 300 395 320 140 168 64 143 278 284 354 570 850 968 1057 814 1299 950 1345
42 28 46 41 37 85 73 101 317 308 297 197 238 197 314 287 466 358 325 168 171 149 211 179 386 605 646 856 805 1055 1112 1065 1148
18 14 90 103 80 64 87 100 295 512 351 300 279 210 368 319 417 386 337 211 182 268 198 0 382 443 514 633 881 1041 962 1057 817
2 15 111 110 91 119 73 128 323 557 519 340 441 445 618 427 415 445 419 397 131 25 14 0 0 119 480 692 996 709 949 950 675
142 37 21 62 106 125 125 275 565 668 663 439 308 715 655 601 414 444 421 468 214 172 31 52 159 164 544 606 909 824 765 788 1320
210 140 3 5 58 123 143 204 471 700 704 568 514 491 730 516 391 541 416 375 222 233 222 168 278 194 257 398 853 792 759 793 824
83 101 139 32 17 69 133 197 231 490 620 544 604 573 710 710 534 609 465 417 437 395 227 310 330 509 554 568 523 492 563 554 1080
204 165 188 144 100 86 101 111 185 319 517 396 275 363 455 670 508 441 549 479 365 441 387 375 646 614 723 380 313 314 294 460 678
91 132 239 277 262 187 129 117 203 235 312 374 244 219 236 487 364 455 423 311 353 319 296 298 424 393 560 555 333 313 176 258 474
94 72 60 234 252 262 223 179 128 117 57 51 53 97 197 283 235 197 166 266 219 300 217 140 219 198 223 279 285 253 219 181 167
11 2 82 207 241 235 248 186 149 116 79 52 175 141 166 225 189 163 131 160 214 275 177 175 136 70 100 85 174 157 88 46 22
134 237 219 188 261 350 618 203 187 151 113 185 214 156 175 204 180 128 94 63 106 106 146 104 81 78 66 75 49 27 25 326 173
60 184 147 271 338 349 291 399 432 220 281 301 206 206 213 210 151 110 105 101 87 68 71 85 80 54 29 24 27 43 25 126 107
100 76 151 200 146 261 292 501 319 217 304 267 260 167 289 209 170 113 96 60 45 76 56 63 51 23 8 5 12 8 8 80 97
50 30 57 113 152 142 172 231 365 365 330 444 318 162 309 190 161 236 79 58 38 66 70 72 83 41 10 2 5 1 3 2 51
0 0 11 81 100 71 90 132 238 303 432 321 399 406 447 366 318 215 262 175 279 122 29 55 78 52 24 14 21 24 8 8 2
0 0 0 12 12 35 77 41 111 159 225 267 202 236 317 325 278 143 126 136 188 178 45 37 31 13 30 33 4 14 9 1 3
1 3 0 22 1 3 5 11 26 42 104 36 151 219 233 308 148 262 260 156 91 106 116 145 91 43 19 51 30 5 5 5 3
5 15 19 11 5 28 10 1 2 26 38 30 86 86 47 142 58 99 101 52 52 55 95 69 91 16 6 0 19 11 13 10 8
6 4 0 3 4 19 22 17 15 6 12 9 2 4 11 31 24 66 79 72 17 58 108 36 15 12 40 17 36 27 5 0 0

GFSFLT1_con_mucape_117.txt.gz
CAPE
30 20 1 11 39 59 76 64 8 88 26 122 189 223 328 280 259 232 233 222 185 336 271 250 356 491 639 806 1008 657 989 891 1156
44 53 6 26 56 81 97 95 95 82 28 68 207 125 239 263 306 322 352 237 38 31 86 227 294 397 587 754 807 908 932 1094 974
10 19 33 34 55 84 106 109 201 137 84 0 96 143 199 198 228 349 316 324 102 115 106 214 115 374 518 404 684 831 987 943 996
22 23 57 38 70 102 113 139 202 223 202 112 116 125 153 203 206 323 287 295 105 159 161 115 0 227 373 413 618 817 841 824 874
15 33 87 99 81 92 85 118 158 255 321 211 205 193 151 247 245 331 309 282 262 176 23 31 0 0 73 462 746 800 619 746 841
66 28 48 53 62 83 136 118 169 236 431 293 267 316 313 367 481 366 410 378 371 255 6 22 50 124 90 417 491 744 741 538 481
178 100 48 48 44 94 138 203 304 342 472 457 363 362 490 460 571 483 410 425 333 350 159 177 109 201 238 210 380 586 545 476 543
273 236 188 139 66 78 173 240 336 540 606 561 495 423 441 495 591 565 387 486 489 334 293 284 167 235 405 528 383 335 290 232 209
32 53 143 264 170 153 177 218 246 388 526 522 584 539 472 511 584 653 554 503 484 447 323 237 251 271 494 514 352 252 228 159 150
89 93 156 199 173 160 116 148 193 226 422 493 487 488 347 334 521 513 333 293 346 283 218 134 139 131 221 272 303 332 190 186 172
9 41 20 23 45 101 124 144 108 126 151 269 380 373 171 203 264 252 212 175 234 202 156 128 156 80 87 84 29 65 86 87 108
92 78 57 36 79 172 243 186 137 105 104 103 130 85 125 167 169 195 198 141 133 131 170 163 154 108 41 64 67 58 45 237 71
56 77 106 110 136 192 232 202 201 178 85 183 133 120 137 172 166 168 150 126 140 80 90 132 146 126 75 40 51 57 50 86 74
35 7 49 80 84 122 138 286 381 256 61 200 21 192 204 184 201 146 112 98 85 80 151 190 173 142 87 67 57 47 29 62 63
6 2 16 157 101 109 280 421 454 262 61 33 109 272 206 142 203 78 39 86 85 109 170 159 152 95 32 30 28 32 4 2 20
0 2 10 91 60 114 90 138 318 511 435 378 362 210 57 163 208 113 92 92 117 131 139 162 141 133 100 60 27 24 33 24 15
0 0 3 4 19 7 41 49 186 251 349 378 359 254 276 241 218 190 183 171 126 136 166 124 107 109 113 48 29 34 17 5 30
0 0 5 6 4 6 5 6 13 9 95 61 42 171 88 154 172 177 203 222 134 157 136 91 167 127 26 16 32 43 6 14 4
4 4 10 2 1 2 6 5 1 2 28 36 68 111 40 105 192 172 161 107 168 86 77 89 62 83 84 112 12 7 20 26 18
3 10 13 15 5 5 20 4 0 3 0 0 0 6 3 18 19 35 23 50 94 99 15 5 20 57 67 6 3 5 13 13 12

GFSFLT1_con_mucape_120.txt.gz
CAPE
18 33 2 10 0 1 14 0 0 0 0 12 119 247 311 286 261 263 246 213 305 262 242 268 289 441 624 678 719 795 751 754 814
30 45 31 18 0 0 22 0 48 31 0 4 63 211 246 265 271 247 245 233 198 186 144 244 209 220 459 534 635 801 740 756 730
4 6 5 26 36 15 25 42 64 50 42 43 40 98 172 237 261 229 217 220 225 187 37 39 178 170 345 450 600 650 687 753 820
3 27 63 40 40 46 39 67 87 67 62 52 39 77 104 126 186 214 220 260 247 231 87 59 123 113 150 330 290 611 679 779 733
1 23 73 88 76 89 82 94 110 154 111 77 87 56 100 104 145 171 207 235 242 180 120 30 2 0 52 184 281 583 649 636 957
0 14 64 100 102 94 114 140 170 206 209 179 113 96 111 117 125 145 167 225 235 201 216 8 0 0 0 44 205 540 564 461 554
41 34 39 140 123 122 128 155 143 201 244 299 227 214 202 202 205 207 231 241 282 295 273 180 0 0 112 38 64 329 468 517 525
161 94 102 56 65 79 109 148 137 167 221 402 307 271 299 285 256 263 301 298 274 318 253 271 170 87 63 243 231 205 259 298 259
184 226 170 182 94 155 158 210 236 373 540 559 437 282 328 321 255 250 323 455 410 305 368 358 262 231 192 355 237 246 174 130 160
172 304 290 249 121 118 181 165 248 245 296 383 375 437 393 390 315 329 312 360 479 370 472 459 137 50 108 157 212 200 184 139 118
24 83 134 201 192 195 172 185 157 125 157 156 206 248 321 275 241 278 188 211 270 269 265 238 126 71 97 82 77 103 90 4 62
114 123 92 155 76 117 191 166 151 143 147 101 90 167 186 158 155 73 116 148 149 136 163 141 144 70 73 64 68 46 31 67 50
132 88 125 152 160 125 165 167 125 174 203 124 102 64 26 35 100 121 94 149 150 104 124 109 72 78 75 102 86 4 66 75 39
70 43 55 35 49 53 136 246 337 237 157 67 126 30 47 91 150 95 67 99 91 84 84 72 63 89 96 97 59 47 68 80 54
33 30 23 97 85 108 164 271 389 385 232 29 6 3 106 142 94 103 107 86 41 52 51 77 102 99 129 100 88 86 78 87 75
1 1 28 71 79 114 120 146 204 257 314 219 227 134 187 89 69 77 78 27 27 75 87 113 120 125 116 108 142 131 82 22 16
1 0 4 5 8 12 37 13 29 263 262 262 251 215 141 44 160 52 67 55 67 100 72 98 125 86 119 87 61 39 67 45 32
0 0 1 2 5 7 6 13 7 8 108 180 124 154 177 178 136 130 80 70 89 88 148 140 185 115 110 133 76 17 24 33 16
0 0 5 11 6 5 4 7 2 3 12 73 50 53 82 105 156 177 137 92 108 106 138 165 120 115 64 113 124 84 64 31 1
0 5 9 1 5 5 7 15 2 0 0 3 28 46 62 79 68 131 103 76 32 54 96 44 29 10 44 85 49 62 69 16 12

GFSFLT1_con_mucape_123.txt.gz
CAPE
116 64 0 10 122 187 242 239 285 249 258 326 360 574 1006 1227 1338 1110 1139 1342 1149 1100 1135 1215 1514 1562 1718 1687 1907 2001 2240 1933 1793
49 85 39 24 93 184 256 277 331 312 316 377 369 529 940 1191 1201 1213 1030 1220 1141 878 1013 948 1002 1169 1384 1693 1720 1857 1906 1515 1928
69 77 35 33 46 149 192 248 310 327 351 355 330 437 771 924 1000 1154 1153 1149 1051 959 870 779 835 887 1079 1381 1657 1798 1986 2131 1911
157 102 135 107 44 132 230 199 238 265 372 364 316 378 538 818 875 965 982 984 1054 1156 900 610 514 780 855 1223 1374 1540 1827 2088 1915
86 136 171 113 80 138 234 257 261 246 363 404 364 412 507 549 699 804 784 940 942 1072 1038 808 760 380 447 542 997 1273 1564 1611 1311
131 137 120 104 99 115 194 239 257 363 446 428 429 455 482 486 535 638 653 811 892 878 851 714 409 129 225 310 297 912 1430 1738 1496
199 204 117 97 142 213 263 393 441 559 609 230 648 516 501 554 586 571 618 737 910 887 805 704 399 266 107 255 701 693 1002 1423 1374
211 325 247 238 317 287 327 480 520 461 575 380 387 779 472 476 1001 811 829 980 1062 1044 978 771 732 371 219 524 990 658 860 1049 1257
235 136 111 313 282 244 266 434 591 551 332 339 761 339 634 838 1112 1030 1126 1228 1340 1365 1276 1267 1003 720 559 585 472 179 142 67 472
123 211 284 213 166 204 400 314 328 786 885 897 662 920 831 840 802 779 418 588 1381 1010 1453 1495 1268 1003 900 623 126 203 149 96 13
113 369 291 238 236 147 135 169 190 217 314 531 363 507 292 265 564 430 273 205 200 160 997 525 1246 819 293 60 59 50 57 93 47
178 202 153 259 294 280 211 151 148 142 213 287 203 186 166 138 115 99 102 110 120 118 231 181 146 122 211 123 92 66 64 21 26
169 218 187 247 200 172 244 190 125 191 215 224 171 232 108 53 59 101 90 79 51 46 143 122 77 50 46 64 68 99 82 23 42
79 84 153 68 294 167 211 315 287 236 296 292 159 196 109 120 209 253 179 82 77 108 128 30 50 49 43 16 62 59 18 37 67
66 43 73 210 258 104 116 326 434 356 309 172 121 29 31 63 94 87 76 110 99 81 79 57 54 45 26 52 69 42 2 27 54
12 17 33 33 89 69 66 161 277 249 335 217 163 80 148 169 86 167 143 110 28 44 25 30 18 18 16 26 55 84 81 61 71
1 5 2 0 0 24 38 16 56 107 192 246 195 267 247 58 36 99 52 64 19 30 37 57 49 42 43 39 43 74 65 47 62
0 0 0 1 6 2 5 3 0 0 55 132 210 87 169 214 149 120 88 81 95 75 115 55 81 67 76 78 37 34 94 75 52
0 0 0 2 5 8 7 11 3 0 2 10 22 47 74 132 102 103 70 101 79 106 117 74 98 103 87 109 46 18 32 87 70
0 0 0 0 1 1 0 4 2 0 0 0 7 5 16 32 26 69 84 82 40 43 22 27 51 51 46 33 5 14 46 60 29

GFSFLT1_con_mucape_126.txt.gz
CAPE
321 213 142 25 130 269 573 629 673 675 894 1211 1000 849 1056 1307 1591 1218 1094 1465 851 1308 1005 1092 1308 1699 1637 1568 1640 1692 1893 1858 1755
315 222 173 50 139 337 545 696 739 799 877 1070 838 570 777 1105 1519 1588 1213 1278 1659 1274 1604 1324 1789 1845 1850 1662 1648 1773 1681 1798 1694
221 270 246 93 118 297 544 641 708 825 850 926 804 514 646 796 1158 1446 1493 1889 1355 1520 1521 1637 1641 1498 1552 1688 1743 1835 2062 1524 1637
209 240 278 264 179 258 457 528 577 692 835 820 834 648 625 740 842 930 1469 1546 1828 1599 1696 1688 1698 1476 1389 1650 1808 1766 2100 1976 1383
179 229 222 252 121 385 430 613 655 591 770 818 889 692 734 816 836 979 1006 1387 1294 1415 1666 1788 1724 1437 1475 1548 1564 1712 1914 1745 1233
231 253 316 425 305 145 460 551 960 827 842 782 946 929 791 888 874 952 895 880 1140 1226 1483 1634 1484 1509 1415 1107 1038 1141 1555 1780 1427
532 409 361 374 287 191 334 683 871 1126 918 1223 978 992 961 1095 1113 920 807 935 1153 1213 1369 1503 1515 1511 1202 851 677 775 848 1336 1560
466 595 506 409 217 251 243 399 681 716 762 1059 1154 1105 1164 1256 1326 1417 1278 1183 1268 1415 1345 1242 1460 1592 1345 1095 1017 1113 1168 1349 1559
217 135 279 259 334 310 441 569 693 775 659 534 902 530 802 1112 1346 1273 1143 1598 1687 1751 1783 1649 1618 1558 1430 1266 822 278 321 309 1213
206 203 195 111 111 213 252 394 488 568 1067 1249 518 1212 846 966 1233 1456 1297 1547 927 1214 1534 1552 1638 1535 1409 1119 1173 334 175 177 328
156 238 266 223 189 152 126 204 339 274 564 996 1322 1288 947 1503 1490 1264 1245 1365 1370 1348 519 366 339 1045 1136 1508 1392 239 59 80 48
97 75 195 262 281 275 205 162 140 291 339 424 682 760 998 820 866 936 1103 453 702 977 872 143 143 168 552 563 400 78 78 59 99
190 205 200 195 195 247 291 256 226 240 252 311 480 609 383 275 244 241 161 168 149 324 298 221 179 127 74 94 61 51 54 55 65
117 177 148 140 206 209 228 306 237 253 288 288 265 349 370 315 382 468 480 443 123 120 147 126 93 75 66 57 32 15 36 13 16
61 52 95 135 222 116 217 397 388 338 284 237 137 139 51 40 42 31 73 69 62 63 58 88 102 81 46 4 10 36 5 8 12
2 13 11 82 84 86 176 175 301 430 480 411 220 133 43 178 84 75 128 151 81 104 15 3 28 62 20 3 7 17 32 19 17
0 5 26 44 103 39 66 78 120 205 207 226 258 226 169 95 125 170 86 59 54 0 3 12 13 12 46 30 43 53 50 55 78
0 3 0 1 1 2 5 0 2 31 113 174 175 225 191 213 167 256 77 58 87 105 25 41 42 32 30 43 33 38 54 38 47
0 0 0 0 2 4 7 10 1 0 2 20 40 70 123 96 93 185 137 62 26 26 58 33 57 22 46 58 42 56 71 48 64
0 0 0 0 0 1 7 13 6 0 0 0 5 52 31 11 99 42 72 33 64 46 0 0 5 9 18 19 36 4 2 6 4

GFSFLT1_con_mucape_129.txt.gz
CAPE
494 156 197 124 153 221 400 458 583 784 1380 1849 1530 1267 2039 2173 1629 1450 1278 1633 1578 1658 1038 1325 2842 1871 2200 2742 1815 1710 1854 1611 1730
370 340 170 150 123 180 373 457 640 855 1177 1735 1649 1201 1241 1654 2089 1500 1552 3000 2175 1423 1482 1165 1706 1558 2468 2418 2690 2805 1720 1648 2520
171 310 405 247 140 186 309 452 591 858 1057 1488 1576 1109 964 918 1168 1544 1623 1822 1406 1716 2090 1647 1723 1550 1782 1786 1875 1809 2090 2397 2390
231 360 518 376 151 200 337 405 598 755 990 1271 1465 1091 759 824 879 1137 1666 1402 1738 1670 1688 1948 1894 1964 2010 1725 1708 1980 2216 2470 2183
109 18 582 412 254 221 370 581 720 763 906 1124 1265 1167 991 829 861 1015 961 1392 1559 1709 1880 1864 2026 2011 1924 1940 1812 1775 2208 1995 1967
20 79 186 366 578 581 492 644 1180 791 955 973 1133 1295 1081 1002 887 838 893 993 1231 1395 1521 1683 1454 1720 2198 2005 1442 1383 1787 1846 1741
112 383 418 465 778 854 593 869 995 1392 1062 1389 1113 1309 1263 1309 1258 1034 907 1212 1435 1153 1533 1606 1591 1551 1747 1790 1501 1145 1182 1205 1375
586 522 468 1082 677 715 420 723 1412 1491 1570 1375 1487 1553 1515 1648 1975 1856 1667 1848 1408 1427 1530 1456 1578 1486 1510 1491 1465 992 1513 1291 1321
210 173 249 383 385 608 449 413 646 1465 1549 1449 1746 1696 933 1920 1985 2068 2126 2022 2025 1762 1630 1909 1892 1569 1545 1501 1062 222 323 552 921
277 169 167 185 238 116 191 349 462 736 1527 1480 1059 1665 1429 1331 2153 2091 2151 1817 1522 1620 1759 2191 2115 1984 1770 1897 1655 535 340 299 473
222 247 245 175 114 120 96 147 267 463 513 1434 1748 1432 1411 1520 1471 1156 1423 1974 2148 1999 1769 1620 1661 1715 1215 784 724 571 413 219 164
101 100 149 218 199 150 102 104 152 483 796 930 1326 1332 1565 1470 1672 1740 1639 1596 1539 1505 1642 1785 1379 1225 915 646 322 249 294 55 134
119 132 108 149 152 159 186 174 132 492 1054 692 834 1013 887 671 851 390 253 315 457 463 497 856 1078 935 636 171 62 80 134 31 51
142 151 117 137 149 156 202 303 441 539 427 346 493 809 651 466 546 482 497 401 303 84 95 97 100 112 83 46 45 61 62 34 35
224 184 156 109 119 120 226 455 536 320 292 286 222 245 203 171 45 34 61 85 51 45 30 47 53 63 44 26 4 49 35 13 10
210 139 72 65 61 93 166 219 335 429 444 339 217 177 155 92 85 68 57 91 112 51 81 40 9 12 39 12 3 34 35 29 16
54 86 18 78 56 30 114 154 198 232 266 316 263 240 152 204 166 112 52 52 33 2 0 0 1 0 3 6 5 2 8 30 44
28 18 4 1 36 27 45 42 68 120 213 218 242 305 259 146 126 193 168 66 47 35 0 0 35 0 0 0 5 15 9 4 6
86 26 4 0 0 0 3 0 2 9 21 57 108 172 258 115 163 170 239 19 4 8 0 0 0 3 4 0 3 20 19 19 0
14 8 10 0 0 0 0 0 0 0 0 0 0 1 4 5 10 57 41 22 7 10 0 0 0 0 0 3 0 1 0 0 0